N8MS Weather Reports


Display with metric or nautical units.
time (UTC)temp
F
wind
direction
speed
MPH
gust
MPH
rain 1hr
in
rain 24hr
in
rain mn
in
humidity
%
barometer
mb
20260904155131 79 125 9.0 17.0 0.00 0.05 0.00 80 1017.0
20260904155027 79 119 9.0 17.0 0.00 0.05 0.00 80 1017.0
20260904154939 79 117 9.0 17.0 0.00 0.05 0.00 80 1017.0
20260904154832 79 113 10.0 17.0 0.00 0.05 0.00 79 1017.1
20260904154725 79 126 12.0 17.0 0.00 0.05 0.00 78 1017.1
20260904154647 79 116 11.0 15.0 0.00 0.05 0.00 78 1017.2
20260904154539 79 107 9.0 13.0 0.00 0.05 0.00 79 1017.3
20260904154431 79 109 7.0 14.0 0.00 0.05 0.00 81 1017.4
20260904154322 79 137 8.0 14.0 0.00 0.05 0.00 80 1017.3
20260904154238 79 103 9.0 14.0 0.00 0.05 0.00 80 1017.4
20260904154130 79 138 8.0 14.0 0.00 0.05 0.00 79 1017.4
20260904154043 79 132 6.0 14.0 0.00 0.05 0.00 80 1017.3
20260904153934 79 129 6.0 14.0 0.00 0.05 0.00 80 1017.4
20260904153847 79 109 7.0 14.0 0.00 0.05 0.00 82 1017.4
20260904153737 79 113 8.0 14.0 0.00 0.05 0.00 80 1017.3
20260904153629 79 135 7.0 11.0 0.00 0.05 0.00 80 1017.4
20260904153521 79 127 6.0 13.0 0.00 0.05 0.00 80 1017.3
20260904153433 79 157 6.0 13.0 0.00 0.05 0.00 81 1017.3
20260904153331 79 96 7.0 14.0 0.00 0.05 0.00 81 1017.4
20260904153220 78 123 7.0 14.0 0.00 0.05 0.00 80 1017.4
20260904153142 78 107 7.0 14.0 0.00 0.05 0.00 80 1017.4
20260904153034 78 109 8.0 14.0 0.00 0.05 0.00 80 1017.4
20260904152945 78 87 8.0 17.0 0.00 0.05 0.00 80 1017.4
20260904152835 78 102 9.0 17.0 0.00 0.05 0.00 80 1017.4
20260904152727 78 93 9.0 17.0 0.00 0.05 0.00 80 1017.3
20260904152620 78 98 9.0 17.0 0.00 0.05 0.00 81 1017.5
20260904152530 78 72 9.0 17.0 0.00 0.05 0.00 81 1017.4
20260904152427 78 101 7.0 17.0 0.00 0.05 0.00 81 1017.4
20260904152340 78 109 7.0 17.0 0.00 0.05 0.00 81 1017.4
20260904152231 78 99 10.0 17.0 0.00 0.05 0.00 80 1017.4
20260904152143 78 123 11.0 17.0 0.00 0.05 0.00 80 1017.4
20260904152054 78 105 10.0 17.0 0.00 0.05 0.00 81 1017.4
20260904151944 78 96 11.0 17.0 0.00 0.05 0.00 81 1017.3
20260904151856 78 77 11.0 17.0 0.00 0.05 0.00 81 1017.3
20260904151806 78 98 9.0 17.0 0.00 0.05 0.00 82 1017.2
20260904151707 78 74 9.0 17.0 0.00 0.05 0.00 82 1017.2
20260904151600 77 59 11.0 18.0 0.00 0.05 0.00 81 1017.2
20260904151432 77 78 11.0 18.0 0.00 0.05 0.00 82 1017.2
20260904151348 77 101 9.0 19.0 0.00 0.05 0.00 82 1017.1
20260904151238 77 93 9.0 19.0 0.00 0.05 0.00 83 1017.2
20260904151131 77 85 9.0 19.0 0.00 0.05 0.00 82 1017.2
20260904151042 77 82 11.0 19.0 0.00 0.05 0.00 82 1017.2
20260904150933 77 109 12.0 19.0 0.00 0.05 0.00 82 1017.3
20260904150825 77 90 12.0 19.0 0.00 0.05 0.00 83 1017.2
20260904150736 77 102 12.0 19.0 0.00 0.05 0.00 82 1017.3
20260904150628 77 91 12.0 19.0 0.00 0.05 0.00 82 1017.2
20260904150521 77 90 13.0 19.0 0.00 0.05 0.00 83 1017.2
20260904150433 77 106 11.0 18.0 0.00 0.05 0.00 82 1017.2
20260904150330 77 115 8.0 16.0 0.00 0.05 0.00 84 1017.1
20260904150240 77 90 9.0 16.0 0.00 0.05 0.00 84 1017.1
20260904150202 77 124 11.0 16.0 0.00 0.05 0.00 83 1017.1
20260904150033 77 113 10.0 18.0 0.00 0.05 0.00 83 1017.1
20260904145925 77 100 11.0 18.0 0.00 0.05 0.00 83 1017.0
20260904145838 77 95 11.0 18.0 0.00 0.05 0.00 83 1017.0
20260904145729 77 95 10.0 18.0 0.00 0.05 0.00 83 1017.0
20260904145623 77 107 9.0 18.0 0.00 0.05 0.00 83 1017.0
20260904145535 77 107 10.0 18.0 0.00 0.05 0.00 83 1017.0
20260904145432 77 98 12.0 18.0 0.00 0.05 0.00 83 1016.9
20260904145324 77 122 13.0 18.0 0.00 0.05 0.00 82 1017.0
20260904145235 77 65 13.0 18.0 0.00 0.05 0.00 83 1017.0
20260904145127 77 84 11.0 16.0 0.00 0.05 0.00 83 1016.9
20260904145040 77 93 12.0 16.0 0.00 0.05 0.00 83 1016.9
20260904144930 77 106 10.0 16.0 0.00 0.05 0.00 83 1017.0
20260904144821 77 64 9.0 16.0 0.00 0.05 0.00 84 1016.9
20260904144733 77 60 9.0 16.0 0.00 0.05 0.00 84 1016.9
20260904144659 77 85 8.0 16.0 0.00 0.05 0.00 84 1016.9
20260904144530 77 68 8.0 16.0 0.00 0.05 0.00 84 1016.9
20260904144423 77 128 9.0 17.0 0.00 0.05 0.00 85 1016.9
20260904144334 77 109 7.0 17.0 0.00 0.05 0.00 85 1016.9
20260904144247 76 54 7.0 17.0 0.00 0.05 0.00 85 1017.0
20260904144138 76 65 8.0 17.0 0.00 0.05 0.00 85 1016.9
20260904144031 76 98 9.0 17.0 0.00 0.05 0.00 85 1017.1
20260904143922 76 72 10.0 17.0 0.00 0.05 0.00 85 1017.1
20260904143835 76 88 10.0 17.0 0.00 0.05 0.00 85 1017.0
20260904143731 76 78 11.0 17.0 0.00 0.05 0.00 85 1017.1
20260904143624 76 51 10.0 15.0 0.00 0.05 0.00 85 1017.0
20260904143536 76 78 10.0 15.0 0.00 0.05 0.00 85 1017.0
20260904143447 76 66 9.0 14.0 0.00 0.05 0.00 85 1017.1
20260904143340 76 86 8.0 14.0 0.00 0.05 0.00 86 1017.1
20260904143230 76 70 7.0 13.0 0.00 0.05 0.00 86 1017.1
20260904143153 76 93 7.0 13.0 0.00 0.05 0.00 86 1017.1
20260904143025 76 76 8.0 13.0 0.00 0.05 0.00 86 1017.0
20260904142936 76 40 8.0 13.0 0.00 0.05 0.00 86 1016.9
20260904142833 76 80 8.0 14.0 0.00 0.05 0.00 86 1016.9
20260904142724 76 15 6.0 14.0 0.00 0.05 0.00 87 1016.9
20260904142637 76 68 5.0 14.0 0.00 0.05 0.00 87 1016.9
20260904142530 75 93 6.0 14.0 0.00 0.05 0.00 87 1016.8
20260904142443 75 85 7.0 14.0 0.00 0.05 0.00 87 1016.8
20260904142355 75 111 8.0 15.0 0.00 0.05 0.00 87 1016.8
20260904142244 75 96 10.0 15.0 0.00 0.05 0.00 87 1016.9
20260904142134 75 109 9.0 15.0 0.00 0.05 0.00 87 1016.9
20260904142046 76 91 7.0 15.0 0.00 0.05 0.00 88 1017.0
20260904141921 76 58 6.0 15.0 0.00 0.05 0.00 88 1017.0
20260904141834 76 78 6.0 15.0 0.00 0.05 0.00 88 1017.1
20260904141725 75 57 7.0 15.0 0.00 0.05 0.00 88 1017.1
20260904141647 75 70 8.0 15.0 0.00 0.05 0.00 88 1017.1
20260904141540 75 90 9.0 15.0 0.00 0.05 0.00 88 1017.0
20260904141432 75 85 8.0 13.0 0.00 0.05 0.00 88 1017.0
20260904141344 75 78 9.0 13.0 0.00 0.05 0.00 88 1017.0
20260904141235 75 63 9.0 16.0 0.00 0.05 0.00 88 1017.1
20260904141128 76 67 7.0 16.0 0.00 0.05 0.00 89 1017.1
20260904141025 76 93 6.0 16.0 0.00 0.05 0.00 90 1017.0
20260904140937 76 69 6.0 16.0 0.00 0.05 0.00 89 1017.1
20260904140829 76 83 7.0 16.0 0.00 0.05 0.00 89 1017.1
20260904140741 76 93 8.0 16.0 0.00 0.05 0.00 90 1017.2
20260904140654 76 81 8.0 16.0 0.00 0.05 0.00 89 1017.2
20260904140544 76 57 8.0 16.0 0.00 0.05 0.00 89 1017.2
20260904140457 76 44 9.0 16.0 0.00 0.05 0.00 89 1017.2
20260904140328 76 28 8.0 14.0 0.00 0.05 0.00 89 1017.2
20260904140238 76 37 8.0 14.0 0.00 0.05 0.00 89 1017.1
20260904140159 76 27 9.0 14.0 0.00 0.05 0.00 90 1017.1
20260904140034 76 49 9.0 14.0 0.00 0.05 0.00 89 1017.2
20260904135926 76 42 10.0 14.0 0.00 0.05 0.00 90 1017.2
20260904135838 76 27 9.0 14.0 0.00 0.05 0.00 90 1017.2
20260904135730 76 53 9.0 14.0 0.00 0.05 0.00 90 1017.2
20260904135642 77 46 9.0 14.0 0.00 0.05 0.00 90 1017.1
20260904135555 77 23 8.0 11.0 0.00 0.05 0.00 90 1017.2
20260904135426 77 31 7.0 10.0 0.00 0.05 0.00 90 1017.0
20260904135338 77 30 6.0 10.0 0.00 0.05 0.00 90 1016.8
20260904135230 77 49 4.0 9.0 0.00 0.05 0.00 90 1016.7
20260904135127 77 73 3.0 9.0 0.00 0.05 0.00 90 1016.6
20260904135039 77 52 3.0 9.0 0.00 0.05 0.00 90 1016.5
20260904134930 77 82 3.0 9.0 0.00 0.05 0.00 90 1016.5
20260904134842 77 39 3.0 9.0 0.00 0.05 0.00 90 1016.4
20260904134733 77 78 4.0 9.0 0.00 0.05 0.00 90 1016.3
20260904134657 77 40 4.0 9.0 0.00 0.05 0.00 90 1016.3
20260904134527 77 59 4.0 9.0 0.00 0.05 0.00 90 1016.3
20260904134440 77 48 4.0 9.0 0.00 0.05 0.00 90 1016.3
20260904134352 77 360 3.0 9.0 0.00 0.05 0.00 90 1016.2
20260904134226 77 74 3.0 9.0 0.00 0.05 0.00 90 1016.1
20260904134137 77 44 3.0 9.0 0.00 0.05 0.00 90 1016.2
20260904134030 77 36 3.0 9.0 0.00 0.05 0.00 90 1016.1
20260904133942 77 61 4.0 9.0 0.00 0.05 0.00 90 1016.1
20260904133855 77 16 5.0 9.0 0.00 0.05 0.00 90 1016.1
20260904133806 77 80 5.0 9.0 0.00 0.05 0.00 90 1016.0
20260904133657 77 59 4.0 9.0 0.00 0.05 0.00 90 1016.1
20260904133549 77 51 3.0 6.0 0.00 0.05 0.00 90 1016.1
20260904133500 77 19 3.0 6.0 0.00 0.05 0.00 91 1016.0
20260904133333 77 46 4.0 6.0 0.00 0.05 0.00 91 1016.0
20260904133227 77 55 4.0 6.0 0.00 0.05 0.00 91 1015.9
20260904133148 77 65 3.0 6.0 0.00 0.05 0.00 91 1015.9
20260904133020 77 63 4.0 6.0 0.00 0.05 0.00 91 1015.9
20260904132933 77 59 3.0 5.0 0.00 0.05 0.00 91 1015.8
20260904132825 77 69 2.0 4.0 0.00 0.05 0.00 91 1015.8
20260904132736 77 69 2.0 4.0 0.00 0.05 0.00 91 1015.8
20260904132627 77 60 1.0 4.0 0.00 0.05 0.00 91 1015.8
20260904132539 77 355 0.0 0.0 0.00 0.05 0.00 91 1015.8
20260904132432 77 355 0.0 0.0 0.00 0.05 0.00 91 1015.8
20260904132328 77 355 0.0 0.0 0.00 0.05 0.00 92 1015.7
20260904132240 77 355 0.0 0.0 0.00 0.05 0.00 92 1015.8
20260904132153 77 355 0.0 0.0 0.00 0.05 0.00 92 1015.7
20260904132022 77 355 0.0 0.0 0.00 0.05 0.00 92 1015.7
20260904131935 77 355 0.0 0.0 0.00 0.05 0.00 92 1015.6
20260904131846 77 355 0.0 0.0 0.00 0.05 0.00 92 1015.6
20260904131759 76 355 0.0 0.0 0.00 0.05 0.00 92 1015.6
20260904131721 76 355 0.0 0.0 0.00 0.05 0.00 92 1015.7
20260904131532 76 355 0.0 1.0 0.00 0.05 0.00 92 1015.7
20260904131427 76 355 0.0 1.0 0.00 0.05 0.00 92 1015.7
20260904131320 76 355 0.0 2.0 0.00 0.05 0.00 92 1015.6
20260904131232 76 355 0.0 3.0 0.00 0.05 0.00 92 1015.5
20260904131144 76 355 0.0 3.0 0.00 0.05 0.00 92 1015.4
20260904131057 76 355 0.0 4.0 0.00 0.05 0.00 92 1015.5
20260904130927 76 355 0.0 4.0 0.00 0.05 0.00 92 1015.6
20260904130840 76 355 0.0 4.0 0.00 0.05 0.00 92 1015.6
20260904130751 76 355 0.0 4.0 0.00 0.05 0.00 92 1015.6
20260904130641 76 355 0.0 4.0 0.00 0.05 0.00 92 1015.6
20260904130553 76 355 1.0 4.0 0.00 0.05 0.00 92 1015.6
20260904130444 76 355 2.0 4.0 0.00 0.05 0.00 92 1015.6
20260904130359 76 355 1.0 4.0 0.00 0.05 0.00 92 1015.8
20260904130248 76 355 0.0 3.0 0.00 0.05 0.00 92 1015.7
20260904130210 76 35 0.0 0.0 0.00 0.05 0.00 92 1015.7
20260904130021 76 35 0.0 0.0 0.00 0.05 0.00 92 1015.5
20260904125933 76 35 0.0 0.0 0.00 0.05 0.00 92 1015.4
20260904125845 76 35 0.0 0.0 0.00 0.05 0.00 92 1015.6
20260904125756 76 35 0.0 5.0 0.00 0.05 0.00 92 1015.6
20260904125648 76 35 0.0 5.0 0.00 0.05 0.00 92 1015.7
20260904125538 76 35 0.0 5.0 0.00 0.05 0.00 92 1015.6
20260904125431 76 35 0.0 5.0 0.00 0.05 0.00 92 1015.6
20260904125327 76 35 0.0 5.0 0.00 0.05 0.00 92 1015.5
20260904125220 76 35 0.0 5.0 0.00 0.05 0.00 92 1015.4
20260904125132 76 35 0.0 5.0 0.00 0.05 0.00 92 1015.4
20260904125024 76 35 2.0 5.0 0.00 0.05 0.00 92 1015.6
20260904124934 76 35 3.0 5.0 0.00 0.05 0.00 92 1015.7
20260904124826 76 29 3.0 5.0 0.00 0.05 0.00 92 1015.6
20260904124737 76 22 2.0 5.0 0.00 0.05 0.00 92 1015.5
20260904124701 76 37 2.0 5.0 0.00 0.05 0.00 92 1015.5
20260904124533 76 37 1.0 5.0 0.00 0.05 0.00 92 1015.4
20260904124427 76 37 1.0 5.0 0.00 0.05 0.00 92 1015.4
20260904124339 76 37 1.0 5.0 0.00 0.05 0.00 92 1015.4
20260904124230 76 37 3.0 5.0 0.00 0.05 0.00 92 1015.5
20260904124122 76 37 4.0 9.0 0.00 0.05 0.00 92 1015.6
20260904124035 76 22 3.0 9.0 0.00 0.05 0.00 92 1015.6
20260904123927 76 11 1.0 9.0 0.00 0.05 0.00 92 1015.4
20260904123838 76 148 2.0 9.0 0.00 0.05 0.00 92 1015.3
20260904123731 76 148 2.0 9.0 0.00 0.05 0.00 92 1015.1
20260904123626 76 149 0.0 9.0 0.00 0.05 0.00 91 1015.2
20260904123537 76 346 0.0 9.0 0.00 0.05 0.00 92 1015.3
20260904123429 76 346 3.0 9.0 0.00 0.05 0.00 92 1015.5
20260904123322 76 9 6.0 9.0 0.00 0.05 0.00 92 1015.6
20260904123232 76 343 4.0 9.0 0.00 0.05 0.00 92 1015.5
20260904123154 76 351 2.0 6.0 0.00 0.05 0.00 92 1015.5
20260904123046 76 158 0.0 6.0 0.00 0.05 0.00 92 1015.1
20260904122937 76 158 0.0 6.0 0.00 0.05 0.00 91 1015.0
20260904122829 76 158 0.0 6.0 0.00 0.05 0.00 91 1015.1
20260904122745 76 158 0.0 6.0 0.00 0.05 0.00 92 1015.1
20260904122657 76 355 0.0 6.0 0.00 0.05 0.00 92 1015.4
20260904122549 76 355 1.0 6.0 0.00 0.05 0.00 92 1015.4
20260904122502 76 355 4.0 8.0 0.00 0.05 0.00 92 1015.6
20260904122353 76 350 4.0 8.0 0.00 0.05 0.00 92 1015.6
20260904122307 76 355 3.0 8.0 0.00 0.05 0.00 92 1015.4
20260904122156 76 22 0.0 8.0 0.00 0.05 0.00 92 1015.2
20260904122026 76 335 0.0 8.0 0.00 0.05 0.00 92 1015.2
20260904121938 76 335 0.0 8.0 0.00 0.05 0.00 92 1015.2
20260904121851 76 335 2.0 8.0 0.00 0.05 0.00 92 1015.3
20260904121722 75 335 5.0 8.0 0.00 0.05 0.00 92 1015.4
20260904121648 75 344 4.0 8.0 0.00 0.05 0.00 92 1015.4
20260904121539 75 5 3.0 5.0 0.00 0.05 0.00 93 1015.2
20260904121451 75 313 3.0 6.0 0.00 0.05 0.00 93 1015.2
20260904121402 75 309 3.0 10.0 0.00 0.05 0.00 93 1015.1
20260904121315 75 322 2.0 11.0 0.00 0.05 0.00 93 1015.1
20260904121205 75 228 0.0 15.0 0.00 0.05 0.00 93 1014.9
20260904121056 75 228 1.0 17.0 0.00 0.05 0.00 93 1014.8
20260904120946 75 228 1.0 17.0 0.00 0.05 0.00 93 1014.8
20260904120858 75 263 2.0 17.0 0.00 0.05 0.00 93 1014.8
20260904120747 75 282 4.0 17.0 0.00 0.05 0.00 93 1014.9
20260904120639 75 16 6.0 17.0 0.00 0.05 0.00 93 1015.2
20260904120531 75 355 8.0 17.0 0.00 0.05 0.00 94 1015.3
20260904120427 74 329 11.0 17.0 0.00 0.05 0.00 94 1015.3
20260904120338 74 10 8.0 17.0 0.00 0.05 0.00 94 1015.3
20260904120230 74 360 1.0 10.0 0.00 0.05 0.00 94 1014.8
20260904120151 74 142 0.0 0.0 0.00 0.05 0.00 93 1014.8
20260904120023 74 142 0.0 0.0 0.00 0.05 0.00 93 1014.6
20260904115935 74 142 0.0 0.0 0.00 0.05 0.00 93 1014.7
20260904115847 74 142 0.0 0.0 0.00 0.05 0.00 93 1014.7
20260904115759 74 142 0.0 0.0 0.00 0.05 0.00 93 1014.7
20260904115649 74 142 0.0 0.0 0.00 0.05 0.00 93 1014.7
20260904115523 74 142 0.0 0.0 0.00 0.05 0.00 93 1014.6
20260904115436 74 142 0.0 0.0 0.00 0.05 0.00 93 1014.6
20260904115329 74 142 0.0 0.0 0.00 0.05 0.00 93 1014.5
20260904115221 74 217 0.0 0.0 0.00 0.05 0.00 93 1014.5
20260904115133 74 217 0.0 0.0 0.00 0.05 0.00 93 1014.6
20260904115025 74 217 0.0 0.0 0.00 0.05 0.00 93 1014.5
20260904114936 74 217 0.0 0.0 0.00 0.05 0.00 93 1014.6
20260904114828 74 217 0.0 0.0 0.00 0.05 0.00 93 1014.5
20260904114724 74 217 0.0 0.0 0.00 0.05 0.00 93 1014.5
20260904114646 74 217 0.0 0.0 0.00 0.05 0.00 93 1014.6
20260904114538 74 217 0.0 0.0 0.00 0.05 0.00 93 1014.5
20260904114431 74 217 0.0 0.0 0.00 0.05 0.00 93 1014.4
20260904114324 74 217 0.0 0.0 0.00 0.05 0.00 93 1014.4
20260904114236 74 217 0.0 0.0 0.00 0.05 0.00 93 1014.4
20260904114129 74 217 0.0 0.0 0.00 0.05 0.00 93 1014.4
20260904114021 74 217 0.0 0.0 0.00 0.05 0.00 93 1014.4
20260904113934 74 217 0.0 0.0 0.00 0.05 0.00 93 1014.4
20260904113830 74 217 0.0 0.0 0.00 0.05 0.00 93 1014.4
20260904113722 74 215 0.0 0.0 0.00 0.05 0.00 93 1014.4
20260904113634 74 215 0.0 0.0 0.00 0.05 0.00 93 1014.4
20260904113527 74 215 0.0 0.0 0.00 0.05 0.00 93 1014.4
20260904113440 74 215 0.0 0.0 0.00 0.05 0.00 93 1014.5
20260904113331 74 215 0.0 0.0 0.00 0.05 0.00 93 1014.5
20260904113242 74 215 0.0 0.0 0.00 0.05 0.00 93 1014.4
20260904113143 74 215 0.0 0.0 0.00 0.05 0.00 93 1014.5
20260904113020 74 215 0.0 0.0 0.00 0.05 0.00 93 1014.4
20260904112931 74 215 0.0 0.0 0.00 0.05 0.00 93 1014.5
20260904112844 74 215 0.0 0.0 0.00 0.05 0.00 93 1014.4
20260904112757 74 215 0.0 0.0 0.00 0.05 0.00 93 1014.4
20260904112647 74 215 0.0 0.0 0.00 0.05 0.00 93 1014.5
20260904112559 74 215 0.0 0.0 0.00 0.05 0.00 93 1014.4
20260904112431 74 215 0.0 0.0 0.00 0.05 0.00 93 1014.4
20260904112324 74 215 0.0 0.0 0.00 0.05 0.00 93 1014.4
20260904112235 74 215 0.0 0.0 0.00 0.05 0.00 93 1014.4
20260904112146 74 215 0.0 0.0 0.00 0.05 0.00 93 1014.4
20260904112022 74 215 0.0 0.0 0.00 0.05 0.00 93 1014.4
20260904111934 74 215 0.0 0.0 0.00 0.05 0.00 93 1014.4
20260904111846 74 215 0.0 0.0 0.00 0.05 0.00 93 1014.3
20260904111758 74 215 0.0 0.0 0.00 0.05 0.00 93 1014.3
20260904111720 74 215 0.0 0.0 0.00 0.05 0.00 92 1014.4
20260904111531 74 215 0.0 0.0 0.00 0.05 0.00 92 1014.3
20260904111424 74 215 0.0 0.0 0.00 0.05 0.00 92 1014.3
20260904111336 74 215 0.0 0.0 0.00 0.05 0.00 92 1014.2
20260904111229 74 215 0.0 0.0 0.00 0.05 0.00 92 1014.2
20260904111124 74 215 0.0 0.0 0.00 0.05 0.00 92 1014.2
20260904111037 74 215 0.0 0.0 0.00 0.05 0.00 92 1014.2
20260904110930 75 215 0.0 0.0 0.00 0.05 0.00 92 1014.3
20260904110843 75 215 0.0 0.0 0.00 0.05 0.00 92 1014.2
20260904110733 75 215 0.0 0.0 0.00 0.05 0.00 92 1014.2
20260904110626 75 215 0.0 0.0 0.00 0.05 0.00 92 1014.3
20260904110539 75 215 0.0 0.0 0.00 0.05 0.00 92 1014.2
20260904110451 75 215 0.0 0.0 0.00 0.05 0.00 92 1014.2
20260904110402 75 215 0.0 0.0 0.00 0.05 0.00 92 1014.2
20260904110255 75 215 0.0 0.0 0.00 0.05 0.00 92 1014.2
20260904110216 75 215 0.0 0.0 0.00 0.05 0.00 92 1014.2
20260904110030 75 215 0.0 0.0 0.00 0.05 0.00 92 1014.2
20260904105921 75 215 0.0 0.0 0.00 0.05 0.00 92 1014.1
20260904105834 75 215 0.0 0.0 0.00 0.05 0.00 92 1014.2
20260904105747 75 215 0.0 0.0 0.00 0.05 0.00 92 1014.3
20260904105658 75 215 0.0 0.0 0.00 0.05 0.00 92 1014.3
20260904105529 75 215 0.0 0.0 0.00 0.05 0.00 92 1014.3
20260904105443 75 215 0.0 0.0 0.00 0.05 0.00 92 1014.2
20260904105355 75 215 0.0 0.0 0.00 0.05 0.00 92 1014.2
20260904105226 75 215 0.0 0.0 0.00 0.05 0.00 92 1014.2
20260904105123 75 215 0.0 0.0 0.00 0.05 0.00 92 1014.2
20260904105035 75 215 0.0 0.0 0.00 0.05 0.00 92 1014.2
20260904104927 75 215 0.0 1.0 0.00 0.05 0.00 92 1014.2
20260904104840 75 215 0.0 3.0 0.00 0.05 0.00 92 1014.1
20260904104752 75 215 0.0 3.0 0.00 0.05 0.00 92 1014.1
20260904104712 75 215 0.0 3.0 0.00 0.05 0.00 92 1014.1
20260904104543 75 215 0.0 3.0 0.00 0.05 0.00 92 1014.1
20260904104455 75 215 0.0 3.0 0.00 0.05 0.00 92 1014.1
20260904104326 75 215 0.0 3.0 0.00 0.05 0.00 92 1014.0
20260904104222 75 215 0.0 3.0 0.00 0.05 0.00 92 1014.0
20260904104135 75 215 1.0 3.0 0.00 0.05 0.00 92 1014.0
20260904104028 75 215 1.0 3.0 0.00 0.05 0.00 92 1013.9
20260904103939 75 215 0.0 2.0 0.00 0.05 0.00 92 1013.8
20260904103831 75 215 1.0 2.0 0.00 0.05 0.00 92 1013.8
20260904103724 75 215 1.0 2.0 0.00 0.05 0.00 92 1013.8
20260904103635 75 215 1.0 3.0 0.00 0.05 0.00 92 1013.8
20260904103528 75 215 1.0 3.0 0.00 0.05 0.00 92 1013.7
20260904103423 75 215 1.0 3.0 0.00 0.05 0.00 92 1013.7
20260904103335 75 215 0.0 3.0 0.00 0.05 0.00 92 1013.7
20260904103246 75 215 1.0 3.0 0.00 0.05 0.00 92 1013.6
20260904103209 75 215 1.0 3.0 0.00 0.05 0.00 92 1013.6
20260904103020 75 215 1.0 3.0 0.00 0.05 0.00 92 1013.7
20260904102933 75 215 1.0 3.0 0.00 0.05 0.00 92 1013.6
20260904102825 75 215 0.0 4.0 0.00 0.05 0.00 93 1013.6
20260904102736 75 215 0.0 4.0 0.00 0.05 0.00 93 1013.6
20260904102629 75 215 1.0 4.0 0.00 0.05 0.00 93 1013.5
20260904102526 75 215 1.0 4.0 0.00 0.05 0.00 93 1013.5
20260904102439 75 215 1.0 4.0 0.00 0.05 0.00 93 1013.4
20260904102332 75 215 2.0 4.0 0.00 0.05 0.00 93 1013.4
20260904102224 75 215 2.0 4.0 0.00 0.05 0.00 93 1013.4
20260904102136 75 246 2.0 4.0 0.00 0.05 0.00 93 1013.3
20260904102028 75 246 2.0 4.0 0.00 0.05 0.00 93 1013.3
20260904101939 75 219 2.0 3.0 0.00 0.05 0.00 93 1013.3
20260904101832 75 219 1.0 3.0 0.00 0.05 0.00 93 1013.3
20260904101728 75 219 1.0 3.0 0.00 0.05 0.00 93 1013.2
20260904101650 75 219 0.0 3.0 0.00 0.05 0.00 93 1013.2
20260904101541 75 219 1.0 3.0 0.00 0.05 0.00 93 1013.2
20260904101432 75 219 2.0 3.0 0.00 0.05 0.00 93 1013.2
20260904101345 75 219 2.0 3.0 0.00 0.05 0.00 93 1013.2
20260904101257 75 252 1.0 3.0 0.00 0.05 0.00 93 1013.1
20260904101128 75 160 0.0 0.0 0.00 0.05 0.00 93 1013.2
20260904101020 75 265 0.0 0.0 0.00 0.05 0.00 93 1013.2
20260904100933 75 265 0.0 0.0 0.00 0.05 0.00 93 1013.2
20260904100824 75 265 0.0 0.0 0.00 0.05 0.00 93 1013.2
20260904100720 75 265 0.0 0.0 0.00 0.05 0.00 93 1013.2
20260904100631 75 265 0.0 0.0 0.00 0.05 0.00 93 1013.2
20260904100523 75 265 0.0 0.0 0.00 0.05 0.00 93 1013.3
20260904100434 75 265 0.0 0.0 0.00 0.05 0.00 93 1013.2
20260904100326 75 265 0.0 0.0 0.00 0.05 0.00 94 1013.2
20260904100235 75 265 0.0 0.0 0.00 0.05 0.00 94 1013.3
20260904100157 75 265 0.0 0.0 0.00 0.05 0.00 94 1013.3
20260904100028 75 227 0.0 0.0 0.00 0.05 0.00 94 1013.4
20260904095922 75 227 0.0 0.0 0.00 0.05 0.00 94 1013.4
20260904095837 74 227 0.0 0.0 0.00 0.05 0.00 94 1013.5
20260904095730 74 226 0.0 0.0 0.00 0.05 0.00 94 1013.4
20260904095622 74 230 0.0 0.0 0.00 0.05 0.00 94 1013.4
20260904095534 74 230 0.0 0.0 0.00 0.05 0.00 94 1013.5
20260904095445 74 230 0.0 1.0 0.00 0.05 0.00 94 1013.5
20260904095337 74 230 0.0 2.0 0.00 0.05 0.00 94 1013.5
20260904095249 74 230 0.0 2.0 0.00 0.05 0.00 94 1013.5
20260904095200 74 230 0.0 2.0 0.00 0.05 0.00 94 1013.5
20260904095032 74 230 0.0 2.0 0.00 0.05 0.00 94 1013.6
20260904094927 74 242 0.0 2.0 0.00 0.05 0.00 94 1013.7
20260904094840 74 242 0.0 2.0 0.00 0.05 0.00 94 1013.7
20260904094752 74 242 0.0 2.0 0.00 0.05 0.00 94 1013.7
20260904094714 74 242 0.0 2.0 0.00 0.05 0.00 94 1013.8
20260904094525 74 242 0.0 2.0 0.00 0.05 0.00 94 1013.9
20260904094438 74 236 0.0 1.0 0.00 0.05 0.00 94 1013.9
20260904094349 74 236 0.0 2.0 0.00 0.05 0.00 94 1013.8
20260904094221 74 236 0.0 3.0 0.00 0.05 0.00 94 1013.8
20260904094133 74 236 0.0 3.0 0.00 0.05 0.00 94 1013.8
20260904094025 74 236 0.0 3.0 0.00 0.05 0.00 95 1013.8
20260904093921 74 236 0.0 3.0 0.00 0.05 0.00 95 1013.7
20260904093833 74 236 0.0 3.0 0.00 0.05 0.00 95 1013.7
20260904093725 74 236 0.0 3.0 0.00 0.05 0.00 95 1013.7
20260904093638 74 236 0.0 3.0 0.00 0.05 0.00 95 1013.7
20260904093530 74 236 1.0 3.0 0.00 0.05 0.00 95 1013.7
20260904093422 74 236 0.0 3.0 0.00 0.05 0.00 95 1013.7
20260904093335 74 189 0.0 0.0 0.00 0.05 0.00 95 1013.7
20260904093225 74 189 0.0 0.0 0.00 0.05 0.00 95 1013.7
20260904093151 73 189 0.0 0.0 0.00 0.05 0.00 95 1013.7
20260904093023 73 189 0.0 0.0 0.00 0.05 0.00 95 1013.6
20260904092934 73 189 0.0 0.0 0.00 0.05 0.00 95 1013.6
20260904092846 73 189 0.0 0.0 0.00 0.05 0.00 95 1013.5
20260904092737 73 189 0.0 0.0 0.00 0.05 0.00 95 1013.5
20260904092650 73 189 0.0 0.0 0.00 0.05 0.00 95 1013.5
20260904092522 73 189 0.0 0.0 0.00 0.05 0.00 95 1013.4
20260904092434 73 189 0.0 0.0 0.00 0.05 0.00 95 1013.3
20260904092346 73 189 0.0 0.0 0.00 0.05 0.00 95 1013.3
20260904092259 73 189 0.0 0.0 0.00 0.05 0.00 95 1013.3
20260904092149 73 189 0.0 0.0 0.00 0.05 0.00 95 1013.3
20260904092024 73 189 0.0 0.0 0.00 0.05 0.00 95 1013.3
20260904091937 73 189 0.0 0.0 0.00 0.05 0.00 95 1013.3
20260904091830 73 189 0.0 0.0 0.00 0.05 0.00 95 1013.4
20260904091743 73 189 0.0 0.0 0.00 0.05 0.00 95 1013.3
20260904091644 73 189 0.0 0.0 0.00 0.05 0.00 95 1013.4
20260904091536 73 189 0.0 0.0 0.00 0.05 0.00 94 1013.3
20260904091427 73 189 0.0 0.0 0.00 0.05 0.00 94 1013.3
20260904091339 73 189 0.0 0.0 0.00 0.05 0.00 94 1013.3
20260904091231 73 189 0.0 0.0 0.00 0.05 0.00 94 1013.3
20260904091128 73 189 0.0 0.0 0.00 0.05 0.00 94 1013.3
20260904091020 73 189 0.0 0.0 0.00 0.05 0.00 94 1013.2
20260904090932 73 189 0.0 0.0 0.00 0.05 0.00 94 1013.4
20260904090844 73 189 0.0 0.0 0.00 0.05 0.00 94 1013.4
20260904090756 73 189 0.0 0.0 0.00 0.05 0.00 94 1013.4
20260904090646 73 189 0.0 0.0 0.00 0.05 0.00 94 1013.4
20260904090558 73 189 0.0 0.0 0.00 0.05 0.00 94 1013.4
20260904090448 73 189 0.0 0.0 0.00 0.05 0.00 94 1013.4
20260904090341 73 189 0.0 1.0 0.00 0.05 0.00 94 1013.5
20260904090233 73 189 0.0 1.0 0.00 0.05 0.00 93 1013.5
20260904090158 73 189 0.0 2.0 0.00 0.05 0.00 93 1013.5
20260904090029 73 189 0.0 2.0 0.00 0.05 0.00 93 1013.5
20260904085921 73 189 0.0 2.0 0.00 0.05 0.00 93 1013.5
20260904085833 73 189 0.0 2.0 0.00 0.05 0.00 93 1013.6
20260904085725 73 189 0.0 2.0 0.00 0.05 0.00 93 1013.5
20260904085635 73 189 0.0 2.0 0.00 0.05 0.00 93 1013.6
20260904085528 73 189 0.0 2.0 0.00 0.05 0.00 93 1013.6
20260904085421 73 189 0.0 2.0 0.00 0.05 0.00 93 1013.6
20260904085336 73 190 0.0 2.0 0.00 0.05 0.00 93 1013.6
20260904085228 73 190 0.0 2.0 0.00 0.05 0.00 93 1013.7
20260904085140 73 190 0.0 3.0 0.00 0.05 0.00 93 1013.7
20260904085032 73 190 0.0 3.0 0.00 0.05 0.00 93 1013.7
20260904084924 73 190 0.0 4.0 0.00 0.05 0.00 93 1013.7
20260904084837 73 190 0.0 4.0 0.00 0.05 0.00 93 1013.7
20260904084750 73 190 0.0 4.0 0.00 0.05 0.00 93 1013.7
20260904084713 73 190 1.0 4.0 0.00 0.05 0.00 93 1013.7
20260904084522 73 150 1.0 6.0 0.00 0.05 0.00 93 1013.7
20260904084438 73 156 1.0 6.0 0.00 0.05 0.00 93 1013.7
20260904084331 73 156 1.0 6.0 0.00 0.05 0.00 93 1013.7
20260904084223 73 185 2.0 6.0 0.00 0.05 0.00 93 1013.7
20260904084136 73 144 2.0 6.0 0.00 0.05 0.00 93 1013.8
20260904084028 73 180 2.0 6.0 0.00 0.05 0.00 94 1013.8
20260904083940 73 188 2.0 6.0 0.00 0.05 0.00 94 1013.8
20260904083852 73 145 2.0 6.0 0.00 0.05 0.00 94 1013.9
20260904083723 73 145 3.0 6.0 0.00 0.05 0.00 94 1013.8
20260904083636 73 150 2.0 6.0 0.00 0.05 0.00 94 1014.0
20260904083531 73 159 1.0 5.0 0.00 0.05 0.00 94 1013.9
20260904083423 73 146 1.0 3.0 0.00 0.05 0.00 94 1014.0
20260904083337 73 144 1.0 3.0 0.00 0.05 0.00 94 1014.0
20260904083228 73 152 1.0 3.0 0.00 0.05 0.00 94 1014.0
20260904083151 73 152 1.0 3.0 0.00 0.05 0.00 94 1014.0
20260904083022 73 152 1.0 3.0 0.00 0.05 0.00 94 1014.0
20260904082933 73 152 0.0 3.0 0.00 0.05 0.00 93 1014.1
20260904082825 73 152 0.0 0.0 0.00 0.05 0.00 93 1014.1
20260904082722 73 152 0.0 0.0 0.00 0.05 0.00 93 1014.1
20260904082635 73 152 0.0 0.0 0.00 0.05 0.00 93 1014.2
20260904082527 73 152 0.0 0.0 0.00 0.05 0.00 93 1014.2
20260904082439 73 152 0.0 0.0 0.00 0.05 0.00 93 1014.2
20260904082331 73 152 0.0 0.0 0.00 0.05 0.00 93 1014.1
20260904082224 73 152 0.0 0.0 0.00 0.05 0.00 93 1014.1
20260904082135 73 152 0.0 0.0 0.00 0.05 0.00 93 1014.0
20260904082028 73 152 0.0 0.0 0.00 0.05 0.00 93 1013.9
20260904081924 73 152 0.0 0.0 0.00 0.05 0.00 93 1014.0
20260904081836 73 152 0.0 0.0 0.00 0.05 0.00 93 1013.9
20260904081739 73 152 0.0 0.0 0.00 0.05 0.00 93 1014.0
20260904081641 73 152 0.0 0.0 0.00 0.05 0.00 93 1013.9
20260904081532 73 152 0.0 2.0 0.00 0.05 0.00 93 1014.0
20260904081423 73 152 0.0 2.0 0.00 0.05 0.00 93 1014.0
20260904081335 73 152 0.0 2.0 0.00 0.05 0.00 93 1014.1
20260904081226 73 152 0.0 2.0 0.00 0.05 0.00 93 1014.0
20260904081122 73 152 0.0 2.0 0.00 0.05 0.00 93 1014.1
20260904081034 73 152 0.0 2.0 0.00 0.05 0.00 93 1014.0
20260904080926 73 152 0.0 2.0 0.00 0.05 0.00 93 1014.1
20260904080838 73 152 0.0 2.0 0.00 0.05 0.00 93 1014.1
20260904080729 73 152 1.0 2.0 0.00 0.05 0.00 93 1013.9
20260904080621 73 152 1.0 2.0 0.00 0.05 0.00 93 1013.9
20260904080534 73 152 1.0 2.0 0.00 0.05 0.00 93 1014.0
20260904080426 73 152 1.0 3.0 0.00 0.05 0.00 93 1014.0
20260904080337 73 152 1.0 3.0 0.00 0.05 0.00 93 1014.0
20260904080255 73 152 1.0 3.0 0.00 0.05 0.00 93 1014.0
20260904080213 73 152 1.0 3.0 0.00 0.05 0.00 93 1014.0
20260904080045 73 152 1.0 3.0 0.00 0.05 0.00 93 1014.0
20260904075957 73 152 1.0 3.0 0.00 0.05 0.00 93 1014.0
20260904075828 73 152 0.0 3.0 0.00 0.05 0.00 93 1014.0
20260904075721 73 152 1.0 3.0 0.00 0.05 0.00 93 1014.0
20260904075634 73 152 2.0 3.0 0.00 0.05 0.00 93 1013.9
20260904075525 73 152 2.0 3.0 0.00 0.05 0.00 93 1014.0
20260904075438 73 152 2.0 3.0 0.00 0.05 0.00 93 1013.9
20260904075336 73 152 2.0 3.0 0.00 0.05 0.00 93 1014.0
20260904075248 73 152 2.0 3.0 0.00 0.05 0.00 93 1014.0
20260904075159 73 152 2.0 3.0 0.00 0.05 0.00 93 1013.9
20260904075030 73 152 1.0 3.0 0.00 0.05 0.00 93 1013.9
20260904074942 73 152 1.0 3.0 0.00 0.05 0.00 93 1014.0
20260904074855 73 152 1.0 3.0 0.00 0.05 0.00 93 1014.0
20260904074807 73 152 1.0 3.0 0.00 0.05 0.00 93 1014.0
20260904074728 73 152 1.0 6.0 0.00 0.05 0.00 93 1013.9
20260904074559 73 152 2.0 6.0 0.00 0.05 0.00 93 1013.9
20260904074450 73 152 1.0 6.0 0.00 0.05 0.00 93 1013.9
20260904074401 73 152 1.0 6.0 0.00 0.05 0.00 93 1013.9
20260904074236 73 152 1.0 6.0 0.00 0.05 0.00 93 1013.9
20260904074147 73 152 1.0 6.0 0.00 0.05 0.00 93 1013.9
20260904074038 73 152 2.0 6.0 0.00 0.05 0.00 93 1013.8
20260904073929 73 152 2.0 6.0 0.00 0.05 0.00 93 1013.8
20260904073841 73 152 1.0 6.0 0.00 0.05 0.00 93 1013.8
20260904073749 73 152 1.0 6.0 0.00 0.05 0.00 93 1013.8
20260904073621 73 152 2.0 6.0 0.00 0.05 0.00 93 1013.7
20260904073531 73 152 2.0 6.0 0.00 0.05 0.00 93 1013.6
20260904073444 73 152 1.0 5.0 0.00 0.05 0.00 93 1013.7
20260904073335 73 152 1.0 5.0 0.00 0.05 0.00 93 1013.6
20260904073230 73 152 1.0 5.0 0.00 0.05 0.00 93 1013.5
20260904073151 73 152 1.0 5.0 0.00 0.05 0.00 93 1013.5
20260904073024 73 155 1.0 5.0 0.00 0.05 0.00 93 1013.6
20260904072936 73 153 2.0 5.0 0.00 0.05 0.00 93 1013.5
20260904072829 73 145 2.0 5.0 0.00 0.05 0.00 93 1013.6
20260904072741 73 144 2.0 5.0 0.00 0.05 0.00 93 1013.5
20260904072633 73 144 2.0 5.0 0.00 0.05 0.00 93 1013.5
20260904072524 73 144 2.0 5.0 0.00 0.05 0.00 93 1013.5
20260904072435 73 147 2.0 5.0 0.00 0.05 0.00 93 1013.6
20260904072346 73 143 2.0 5.0 0.00 0.05 0.00 93 1013.6
20260904072301 73 148 1.0 5.0 0.00 0.05 0.00 93 1013.7
20260904072132 73 148 1.0 5.0 0.00 0.05 0.00 93 1013.7
20260904072046 73 148 2.0 5.0 0.00 0.05 0.00 93 1013.6
20260904071958 73 148 2.0 5.0 0.00 0.05 0.00 93 1013.7
20260904071830 73 148 2.0 5.0 0.00 0.05 0.00 93 1013.7
20260904071742 73 148 1.0 5.0 0.00 0.05 0.00 93 1013.7
20260904071704 73 148 1.0 5.0 0.00 0.05 0.00 93 1013.7
20260904071555 73 148 1.0 5.0 0.00 0.05 0.00 93 1013.8
20260904071445 73 148 1.0 5.0 0.00 0.05 0.00 93 1013.8
20260904071358 73 145 1.0 5.0 0.00 0.05 0.00 93 1013.8
20260904071249 73 145 1.0 5.0 0.00 0.05 0.00 93 1013.8
20260904071204 73 145 1.0 5.0 0.00 0.05 0.00 93 1013.8
20260904071055 73 145 2.0 5.0 0.00 0.05 0.00 93 1013.8
20260904070926 73 153 1.0 6.0 0.00 0.05 0.00 93 1013.9
20260904070838 73 153 1.0 6.0 0.00 0.05 0.00 93 1013.9
20260904070730 73 153 1.0 6.0 0.00 0.05 0.00 93 1013.9
20260904070623 73 153 2.0 6.0 0.00 0.05 0.00 93 1013.8
20260904070535 73 153 2.0 6.0 0.00 0.05 0.00 93 1013.9
20260904070426 73 148 2.0 5.0 0.00 0.05 0.00 93 1013.9
20260904070338 73 145 2.0 4.0 0.00 0.05 0.00 93 1013.9
20260904070232 73 145 1.0 4.0 0.00 0.05 0.00 93 1013.9
20260904070152 73 145 2.0 4.0 0.00 0.05 0.00 93 1013.9
20260904070043 73 153 2.0 4.0 0.00 0.05 0.00 93 1013.9
20260904065935 73 144 2.0 4.0 0.00 0.05 0.00 93 1014.1
20260904065828 73 144 2.0 4.0 0.00 0.05 0.00 93 1014.0
20260904065740 73 158 2.0 4.0 0.00 0.05 0.00 93 1014.0
20260904065632 73 161 1.0 4.0 0.00 0.05 0.00 93 1014.0
20260904065543 73 146 1.0 4.0 0.00 0.05 0.00 93 1014.1
20260904065434 73 146 1.0 4.0 0.00 0.05 0.00 93 1014.1
20260904065347 73 146 2.0 4.0 0.00 0.05 0.00 93 1014.2
20260904065258 73 146 1.0 4.0 0.00 0.05 0.00 93 1014.2
20260904065213 73 146 1.0 4.0 0.00 0.05 0.00 93 1014.2
20260904065124 73 146 1.0 4.0 0.00 0.05 0.00 93 1014.2
20260904065015 73 146 1.0 4.0 0.00 0.05 0.00 93 1014.2
20260904064906 73 146 1.0 4.0 0.00 0.05 0.00 93 1014.3
20260904064755 73 146 1.0 4.0 0.00 0.05 0.00 93 1014.3
20260904064656 73 146 1.0 4.0 0.00 0.05 0.00 93 1014.3
20260904064528 73 146 1.0 4.0 0.00 0.05 0.00 93 1014.4
20260904064440 73 146 1.0 4.0 0.00 0.05 0.00 93 1014.4
20260904064353 73 146 1.0 4.0 0.00 0.05 0.00 93 1014.3
20260904064225 73 146 1.0 5.0 0.00 0.05 0.00 93 1014.4
20260904064121 73 161 1.0 5.0 0.00 0.05 0.00 93 1014.5
20260904064033 73 161 1.0 3.0 0.00 0.05 0.00 93 1014.5
20260904063945 73 161 1.0 3.0 0.00 0.05 0.00 93 1014.4
20260904063837 73 161 1.0 3.0 0.00 0.05 0.00 93 1014.5
20260904063751 73 161 1.0 3.0 0.00 0.05 0.00 93 1014.5
20260904063641 73 161 1.0 3.0 0.00 0.05 0.00 93 1014.5
20260904063532 73 161 1.0 3.0 0.00 0.05 0.00 93 1014.5
20260904063425 73 161 1.0 3.0 0.00 0.05 0.00 92 1014.6
20260904063338 73 161 1.0 3.0 0.00 0.05 0.00 92 1014.6
20260904063247 73 161 1.0 3.0 0.00 0.05 0.00 92 1014.6
20260904063150 73 161 1.0 3.0 0.00 0.05 0.00 92 1014.6
20260904063041 73 161 1.0 4.0 0.00 0.05 0.00 92 1014.6
20260904062957 73 161 1.0 3.0 0.00 0.05 0.00 92 1014.6
20260904062909 73 161 0.0 4.0 0.00 0.05 0.00 92 1014.7
20260904062759 73 161 0.0 3.0 0.00 0.05 0.00 92 1014.7
20260904062630 73 161 0.0 3.0 0.00 0.05 0.00 92 1014.7
20260904062541 73 161 0.0 3.0 0.00 0.05 0.00 92 1014.8
20260904062454 73 161 1.0 3.0 0.00 0.05 0.00 92 1014.7
20260904062345 73 161 1.0 3.0 0.00 0.05 0.00 92 1014.8
20260904062236 73 161 1.0 6.0 0.00 0.05 0.00 92 1014.7
20260904062127 73 161 2.0 6.0 0.00 0.05 0.00 92 1014.8
20260904062039 73 161 1.0 6.0 0.00 0.05 0.00 92 1014.8
20260904061936 73 161 0.0 6.0 0.00 0.05 0.00 92 1014.8
20260904061847 73 161 0.0 6.0 0.00 0.05 0.00 92 1014.8
20260904061801 73 159 1.0 6.0 0.00 0.05 0.00 92 1014.8
20260904061701 73 171 1.0 6.0 0.00 0.05 0.00 92 1014.8
20260904061553 73 153 2.0 6.0 0.00 0.05 0.00 92 1014.8
20260904061444 73 168 1.0 4.0 0.00 0.05 0.00 92 1014.7
20260904061336 73 161 1.0 3.0 0.00 0.05 0.00 92 1014.8
20260904061228 73 193 1.0 3.0 0.00 0.05 0.00 92 1014.8
20260904061120 73 155 0.0 3.0 0.00 0.05 0.00 92 1014.8
20260904061033 73 155 0.0 3.0 0.00 0.05 0.00 92 1014.8
20260904060929 73 144 0.0 3.0 0.00 0.05 0.00 92 1014.9
20260904060840 73 144 1.0 3.0 0.00 0.05 0.00 92 1014.8
20260904060752 73 144 1.0 3.0 0.00 0.05 0.00 92 1014.8
20260904060705 73 144 1.0 3.0 0.00 0.05 0.00 92 1014.8
20260904060557 73 144 0.0 2.0 0.00 0.05 0.00 92 1014.8
20260904060509 73 144 0.0 1.0 0.00 0.05 0.00 92 1014.9
20260904060420 73 144 0.0 2.0 0.00 0.05 0.00 92 1014.9
20260904060310 73 144 0.0 3.0 0.00 0.05 0.00 92 1015.0
20260904060210 73 144 0.0 3.0 0.00 0.05 0.00 92 1015.0
20260904060021 73 144 0.0 4.0 0.00 0.05 0.00 92 1015.0
20260904055933 73 144 0.0 4.0 0.00 0.05 0.00 92 1015.0
20260904055845 73 144 0.0 4.0 0.00 0.05 0.00 92 1015.1
20260904055721 73 144 0.0 4.0 0.00 0.05 0.00 92 1015.1
20260904055634 73 144 1.0 4.0 0.00 0.05 0.00 92 1015.0
20260904055547 73 144 2.0 4.0 0.00 0.05 0.00 92 1015.0
20260904055438 73 144 2.0 4.0 0.00 0.05 0.00 92 1015.1
20260904055331 73 144 2.0 4.0 0.00 0.05 0.00 92 1015.0
20260904055223 73 144 1.0 4.0 0.00 0.05 0.00 92 1015.1
20260904055136 73 140 0.0 4.0 0.00 0.05 0.00 92 1015.0
20260904055028 73 142 0.0 4.0 0.00 0.05 0.00 92 1015.1
20260904054924 73 142 1.0 4.0 0.00 0.05 0.00 92 1015.1
20260904054835 73 142 2.0 4.0 0.00 0.05 0.00 92 1015.1
20260904054747 73 142 2.0 4.0 0.00 0.05 0.00 92 1015.0
20260904054710 73 142 2.0 4.0 0.00 0.05 0.00 92 1015.0
20260904054520 73 142 1.0 4.0 0.00 0.05 0.00 92 1015.1
20260904054432 73 142 1.0 4.0 0.00 0.05 0.00 92 1015.1
20260904054343 74 142 1.0 4.0 0.00 0.05 0.00 92 1015.1
20260904054256 74 142 0.0 4.0 0.00 0.05 0.00 92 1015.1
20260904054147 73 142 0.0 4.0 0.00 0.05 0.00 92 1015.1
20260904054059 73 142 1.0 4.0 0.00 0.05 0.00 92 1015.1
20260904053950 74 142 2.0 7.0 0.00 0.05 0.00 92 1015.1
20260904053825 73 142 3.0 7.0 0.00 0.05 0.00 92 1015.1
20260904053736 74 142 2.0 7.0 0.00 0.05 0.00 92 1015.1
20260904053625 74 142 2.0 7.0 0.00 0.05 0.00 92 1015.1
20260904053537 74 142 1.0 7.0 0.00 0.05 0.00 92 1015.2
20260904053448 74 142 1.0 7.0 0.00 0.05 0.00 92 1015.1
20260904053340 74 142 2.0 7.0 0.00 0.05 0.00 92 1015.1
20260904053240 74 123 3.0 7.0 0.00 0.05 0.00 92 1015.1
20260904053142 74 135 2.0 4.0 0.00 0.05 0.00 92 1015.1
20260904053033 74 135 2.0 4.0 0.00 0.05 0.00 92 1015.1
20260904052945 74 135 2.0 4.0 0.00 0.05 0.00 92 1015.0
20260904052858 74 135 3.0 4.0 0.00 0.05 0.00 92 1015.1
20260904052732 74 135 3.0 5.0 0.00 0.05 0.00 92 1014.9
20260904052625 74 135 2.0 5.0 0.00 0.05 0.00 91 1014.9
20260904052536 74 135 3.0 5.0 0.00 0.05 0.00 91 1015.0
20260904052428 74 135 3.0 7.0 0.00 0.05 0.00 91 1015.0
20260904052338 74 135 3.0 7.0 0.00 0.05 0.00 91 1015.0
20260904052230 74 135 4.0 7.0 0.00 0.05 0.00 91 1014.9
20260904052122 74 135 4.0 7.0 0.00 0.05 0.00 91 1014.9
20260904052034 74 123 4.0 7.0 0.00 0.05 0.00 91 1014.9
20260904051930 74 126 3.0 7.0 0.00 0.05 0.00 91 1014.9
20260904051823 74 123 3.0 7.0 0.00 0.05 0.00 91 1014.9
20260904051735 74 123 4.0 7.0 0.00 0.05 0.00 91 1014.8
20260904051658 74 130 4.0 7.0 0.00 0.05 0.00 91 1014.8
20260904051529 74 132 5.0 7.0 0.00 0.05 0.00 91 1014.8
20260904051422 74 132 4.0 7.0 0.00 0.05 0.00 91 1014.9
20260904051335 74 134 3.0 7.0 0.00 0.05 0.00 91 1014.9
20260904051227 74 128 4.0 7.0 0.00 0.05 0.00 91 1014.9
20260904051123 74 132 4.0 7.0 0.00 0.05 0.00 91 1014.8
20260904051035 74 136 3.0 5.0 0.00 0.05 0.00 91 1014.9
20260904050948 74 130 3.0 5.0 0.00 0.05 0.00 91 1015.0
20260904050838 74 130 4.0 6.0 0.00 0.05 0.00 91 1014.9
20260904050730 74 145 4.0 6.0 0.00 0.05 0.00 91 1014.9
20260904050622 74 123 3.0 6.0 0.00 0.05 0.00 91 1014.9
20260904050533 74 123 3.0 6.0 0.00 0.05 0.00 91 1014.9
20260904050444 74 123 3.0 7.0 0.00 0.05 0.00 91 1014.8
20260904050336 74 123 3.0 7.0 0.00 0.05 0.00 91 1014.9
20260904050224 74 120 3.0 7.0 0.00 0.05 0.00 91 1014.8
20260904050151 74 120 3.0 7.0 0.00 0.05 0.00 91 1014.8
20260904050041 74 120 3.0 7.0 0.00 0.05 0.00 91 1014.8
20260904045954 74 107 4.0 7.0 0.00 0.05 0.00 91 1014.9
20260904045845 74 120 4.0 7.0 0.00 0.05 0.00 91 1014.8
20260904045736 74 121 4.0 7.0 0.00 0.05 0.00 91 1014.8
20260904045649 74 121 4.0 7.0 0.00 0.05 0.00 91 1014.8
20260904045559 74 132 4.0 7.0 0.00 0.05 0.00 91 1014.8
20260904045432 74 142 4.0 7.0 0.00 0.05 0.00 91 1014.8
20260904045324 74 123 4.0 7.0 0.00 0.05 0.00 91 1014.8
20260904045237 74 129 4.0 7.0 0.00 0.05 0.00 91 1014.9
20260904045149 74 126 4.0 7.0 0.00 0.05 0.00 91 1014.9
20260904045025 74 127 4.0 7.0 0.00 0.05 0.00 91 1014.9
20260904044938 74 127 4.0 7.0 0.00 0.05 0.00 91 1014.9
20260904044829 74 132 3.0 7.0 0.00 0.05 0.00 91 1015.0
20260904044742 74 127 3.0 7.0 0.00 0.05 0.00 91 1015.0
20260904044643 74 127 4.0 7.0 0.00 0.05 0.00 91 1015.0
20260904044534 74 133 4.0 7.0 0.00 0.05 0.00 91 1014.9
20260904044447 74 133 3.0 5.0 0.00 0.05 0.00 91 1015.0
20260904044357 74 109 2.0 4.0 0.00 0.05 0.00 91 1015.0
20260904044309 74 109 2.0 4.0 0.00 0.05 0.00 91 1015.0
20260904044139 74 109 3.0 4.0 0.00 0.05 0.00 91 1015.0
20260904044051 74 109 3.0 4.0 0.00 0.05 0.00 91 1015.0
20260904043947 74 109 3.0 4.0 0.00 0.05 0.00 91 1015.0
20260904043858 74 109 2.0 4.0 0.00 0.05 0.00 91 1015.0
20260904043727 74 109 2.0 4.0 0.00 0.05 0.00 91 1015.0
20260904043639 74 109 2.0 4.0 0.00 0.05 0.00 91 1015.1
20260904043551 74 123 3.0 4.0 0.00 0.05 0.00 91 1015.1
20260904043422 74 123 3.0 4.0 0.00 0.05 0.00 90 1015.1
20260904043335 74 109 2.0 4.0 0.00 0.05 0.00 90 1015.1
20260904043246 74 109 2.0 4.0 0.00 0.05 0.00 90 1015.0
20260904043207 74 109 2.0 4.0 0.00 0.05 0.00 90 1015.0
20260904043059 74 109 2.0 4.0 0.00 0.05 0.00 90 1015.1
20260904042931 74 109 2.0 4.0 0.00 0.05 0.00 90 1015.1
20260904042846 74 109 2.0 4.0 0.00 0.05 0.00 90 1015.1
20260904042758 74 109 2.0 4.0 0.00 0.05 0.00 90 1015.2
20260904042649 74 109 2.0 4.0 0.00 0.05 0.00 90 1015.2
20260904042540 74 109 3.0 4.0 0.00 0.05 0.00 90 1015.2
20260904042432 74 92 3.0 4.0 0.00 0.05 0.00 89 1015.1
20260904042323 74 98 3.0 4.0 0.00 0.05 0.00 89 1015.1
20260904042234 74 98 3.0 4.0 0.00 0.05 0.00 89 1015.2
20260904042125 74 98 2.0 4.0 0.00 0.05 0.00 89 1015.2
20260904042037 74 98 2.0 4.0 0.00 0.05 0.00 89 1015.2
20260904041933 74 98 3.0 4.0 0.00 0.05 0.00 89 1015.2
20260904041825 74 98 2.0 4.0 0.00 0.05 0.00 89 1015.2
20260904041737 74 140 2.0 4.0 0.00 0.05 0.00 89 1015.2
20260904041659 74 140 2.0 4.0 0.00 0.05 0.00 89 1015.2
20260904041529 74 140 3.0 4.0 0.00 0.05 0.00 89 1015.1
20260904041442 74 140 2.0 3.0 0.00 0.05 0.00 89 1015.1
20260904041351 74 140 2.0 3.0 0.00 0.05 0.00 89 1015.2
20260904041221 74 140 2.0 3.0 0.00 0.05 0.00 89 1015.2
20260904041134 74 140 2.0 3.0 0.00 0.05 0.00 89 1015.2
20260904041031 74 140 1.0 3.0 0.00 0.05 0.00 89 1015.3
20260904040924 74 140 1.0 3.0 0.00 0.05 0.00 89 1015.2
20260904040835 74 140 2.0 3.0 0.00 0.05 0.00 89 1015.2
20260904040727 74 140 2.0 3.0 0.00 0.05 0.00 88 1015.3
20260904040640 74 140 2.0 3.0 0.00 0.05 0.00 88 1015.3
20260904040531 74 140 2.0 3.0 0.00 0.05 0.00 88 1015.3
20260904040424 75 140 2.0 3.0 0.00 0.05 0.00 88 1015.2
20260904040337 75 140 2.0 3.0 0.00 0.05 0.00 88 1015.3
20260904040230 75 140 2.0 3.0 0.00 0.05 0.05 88 1015.3
20260904040153 75 140 2.0 3.0 0.00 0.05 0.05 88 1015.3
20260904040044 75 140 2.0 3.0 0.00 0.05 0.05 88 1015.3
20260904035926 75 140 2.0 3.0 0.00 0.05 0.05 88 1015.2
20260904035838 75 140 2.0 3.0 0.00 0.05 0.05 88 1015.3
20260904035731 75 140 2.0 3.0 0.00 0.05 0.05 88 1015.3
20260904035643 75 140 2.0 3.0 0.00 0.05 0.05 88 1015.3
20260904035555 75 140 2.0 3.0 0.00 0.05 0.05 88 1015.3
20260904035446 75 140 2.0 3.0 0.00 0.05 0.05 88 1015.3
20260904035337 75 140 2.0 3.0 0.00 0.05 0.05 88 1015.3
20260904035232 75 140 1.0 3.0 0.00 0.05 0.05 88 1015.2
20260904035125 75 140 2.0 3.0 0.00 0.05 0.05 88 1015.3
20260904035036 75 140 2.0 3.0 0.00 0.05 0.05 88 1015.4
20260904034929 75 140 2.0 3.0 0.00 0.05 0.05 88 1015.3
20260904034840 75 140 2.0 3.0 0.00 0.05 0.05 88 1015.3
20260904034752 75 140 2.0 3.0 0.00 0.05 0.05 88 1015.3
20260904034653 75 140 2.0 3.0 0.00 0.05 0.05 88 1015.3
20260904034543 75 140 2.0 3.0 0.00 0.05 0.05 88 1015.3
20260904034434 75 140 2.0 3.0 0.00 0.05 0.05 88 1015.3
20260904034327 75 140 1.0 3.0 0.00 0.05 0.05 88 1015.4
20260904034243 75 140 1.0 3.0 0.00 0.05 0.05 88 1015.4
20260904034155 75 140 0.0 1.0 0.00 0.05 0.05 88 1015.4
20260904034048 75 140 0.0 1.0 0.00 0.05 0.05 88 1015.5
20260904034000 75 140 0.0 0.0 0.00 0.05 0.05 88 1015.4
20260904033832 75 140 0.0 0.0 0.00 0.05 0.05 87 1015.4
20260904033744 75 140 0.0 0.0 0.00 0.05 0.05 87 1015.5
20260904033636 75 140 0.0 0.0 0.00 0.05 0.05 87 1015.4
20260904033549 75 140 0.0 1.0 0.00 0.05 0.05 87 1015.5
20260904033438 75 140 0.0 2.0 0.00 0.05 0.05 87 1015.4
20260904033352 75 140 0.0 2.0 0.00 0.05 0.05 87 1015.5
20260904033158 75 140 0.0 2.0 0.00 0.05 0.05 87 1015.4
20260904033028 75 140 0.0 2.0 0.00 0.05 0.05 87 1015.4
20260904032940 75 140 0.0 2.0 0.00 0.05 0.05 87 1015.4
20260904032832 75 140 0.0 2.0 0.00 0.05 0.05 87 1015.4
20260904032723 75 140 1.0 2.0 0.00 0.05 0.05 87 1015.4
20260904032635 75 140 1.0 2.0 0.00 0.05 0.05 87 1015.4
20260904032526 75 140 1.0 3.0 0.00 0.05 0.05 87 1015.4
20260904032438 75 140 1.0 4.0 0.00 0.05 0.05 87 1015.3
20260904032335 75 140 2.0 4.0 0.00 0.05 0.05 87 1015.3
20260904032227 75 140 2.0 4.0 0.00 0.05 0.05 87 1015.3
20260904032139 75 140 2.0 4.0 0.00 0.05 0.05 87 1015.3
20260904032030 75 140 1.0 4.0 0.00 0.05 0.05 87 1015.2
20260904031942 75 140 2.0 4.0 0.00 0.05 0.05 87 1015.1
20260904031855 75 140 1.0 4.0 0.00 0.05 0.05 87 1015.3
20260904031726 75 140 2.0 4.0 0.00 0.05 0.05 87 1015.2
20260904031649 75 140 2.0 4.0 0.00 0.05 0.05 87 1015.2
20260904031520 75 123 2.0 4.0 0.00 0.05 0.05 87 1015.1
20260904031437 75 148 2.0 5.0 0.00 0.05 0.05 87 1015.2
20260904031329 75 148 2.0 5.0 0.00 0.05 0.05 87 1015.1
20260904031222 75 148 2.0 4.0 0.00 0.05 0.05 87 1015.2
20260904031134 75 148 2.0 4.0 0.00 0.05 0.05 87 1015.2
20260904031026 75 148 1.0 4.0 0.00 0.05 0.05 87 1015.2
20260904030939 75 146 1.0 4.0 0.00 0.05 0.05 87 1015.1
20260904030831 75 133 0.0 5.0 0.00 0.05 0.05 87 1015.2
20260904030723 75 103 0.0 5.0 0.00 0.05 0.05 87 1015.2
20260904030640 75 103 1.0 5.0 0.00 0.05 0.05 87 1015.2
20260904030532 75 103 2.0 5.0 0.00 0.05 0.05 87 1015.2
20260904030444 75 142 1.0 5.0 0.00 0.05 0.05 87 1015.2
20260904030336 75 142 2.0 5.0 0.00 0.05 0.05 87 1015.2
20260904030226 75 142 2.0 5.0 0.00 0.05 0.05 87 1015.3
20260904030149 75 142 3.0 5.0 0.00 0.05 0.05 87 1015.3
20260904030039 75 107 3.0 5.0 0.00 0.05 0.05 87 1015.2
20260904025931 75 153 3.0 5.0 0.00 0.05 0.05 87 1015.1
20260904025823 75 153 3.0 3.0 0.00 0.05 0.05 87 1015.2
20260904025740 75 153 2.0 3.0 0.00 0.05 0.05 87 1015.2
20260904025631 75 153 2.0 3.0 0.00 0.05 0.05 87 1015.2
20260904025523 75 153 2.0 3.0 0.00 0.05 0.05 87 1015.3
20260904025434 75 153 2.0 3.0 0.00 0.05 0.05 87 1015.2
20260904025325 75 153 2.0 3.0 0.00 0.05 0.05 87 1015.2
20260904025237 75 153 2.0 5.0 0.00 0.05 0.05 87 1015.3
20260904025128 75 153 2.0 5.0 0.00 0.05 0.05 87 1015.3
20260904025021 75 153 2.0 5.0 0.00 0.05 0.05 87 1015.4
20260904024938 75 153 2.0 5.0 0.00 0.05 0.05 87 1015.3
20260904024850 75 153 1.0 5.0 0.00 0.05 0.05 87 1015.2
20260904024741 75 153 2.0 5.0 0.00 0.05 0.05 87 1015.2
20260904024704 75 153 2.0 5.0 0.00 0.05 0.05 86 1015.2
20260904024534 75 153 2.0 5.0 0.00 0.05 0.05 86 1015.2
20260904024445 75 153 2.0 5.0 0.00 0.05 0.05 86 1015.2
20260904024358 75 144 1.0 8.0 0.00 0.05 0.05 86 1015.2
20260904024309 75 136 2.0 8.0 0.00 0.05 0.05 86 1015.0
20260904024159 75 136 3.0 8.0 0.00 0.05 0.05 86 1015.1
20260904024031 75 153 3.0 8.0 0.00 0.05 0.05 86 1015.1
20260904023922 75 130 3.0 8.0 0.00 0.05 0.05 86 1015.2
20260904023837 75 139 3.0 8.0 0.00 0.05 0.05 86 1015.1
20260904023750 75 139 3.0 8.0 0.00 0.05 0.05 86 1015.2
20260904023703 75 133 4.0 8.0 0.00 0.05 0.05 86 1015.2
20260904023555 75 143 4.0 8.0 0.00 0.05 0.05 86 1015.2
20260904023506 75 130 3.0 5.0 0.00 0.05 0.05 86 1015.1
20260904023419 75 159 3.0 5.0 0.00 0.05 0.05 86 1015.2
20260904023309 75 143 3.0 5.0 0.00 0.05 0.05 86 1015.3
20260904023210 75 143 3.0 7.0 0.00 0.05 0.05 86 1015.4
20260904023040 75 143 3.0 7.0 0.00 0.05 0.05 86 1015.4
20260904022932 76 110 3.0 7.0 0.00 0.05 0.05 86 1015.4
20260904022823 76 125 3.0 7.0 0.00 0.05 0.05 86 1015.3
20260904022740 76 122 3.0 7.0 0.00 0.05 0.05 86 1015.3
20260904022652 76 140 4.0 7.0 0.00 0.05 0.05 85 1015.3
20260904022544 76 128 4.0 7.0 0.00 0.05 0.05 85 1015.4
20260904022436 76 122 4.0 7.0 0.00 0.05 0.05 85 1015.3
20260904022348 76 130 4.0 7.0 0.00 0.05 0.05 85 1015.4
20260904022300 76 123 3.0 6.0 0.00 0.05 0.05 85 1015.4
20260904022152 76 127 3.0 5.0 0.00 0.05 0.05 85 1015.5
20260904022021 76 128 3.0 6.0 0.00 0.05 0.05 85 1015.4
20260904021934 76 128 3.0 6.0 0.00 0.05 0.05 85 1015.4
20260904021846 76 130 3.0 6.0 0.00 0.05 0.05 85 1015.4
20260904021758 76 127 3.0 6.0 0.00 0.05 0.05 85 1015.5
20260904021659 76 127 3.0 7.0 0.00 0.05 0.05 85 1015.5
20260904021555 76 128 3.0 7.0 0.00 0.05 0.05 85 1015.3
20260904021426 76 119 3.0 7.0 0.00 0.05 0.05 85 1015.3
20260904021336 76 113 3.0 7.0 0.00 0.05 0.05 85 1015.3
20260904021230 76 141 4.0 7.0 0.00 0.05 0.05 85 1015.3
20260904021122 76 121 3.0 7.0 0.00 0.05 0.05 85 1015.3
20260904021034 76 131 3.0 7.0 0.00 0.05 0.05 85 1015.3
20260904020927 76 128 4.0 7.0 0.00 0.05 0.05 85 1015.2
20260904020838 76 119 3.0 7.0 0.00 0.05 0.05 85 1015.2
20260904020734 76 118 2.0 6.0 0.00 0.05 0.05 85 1015.2
20260904020626 76 118 3.0 6.0 0.00 0.05 0.05 85 1015.2
20260904020539 76 118 3.0 6.0 0.00 0.05 0.05 85 1015.2
20260904020431 76 118 4.0 6.0 0.00 0.05 0.05 85 1015.3
20260904020325 76 124 3.0 6.0 0.00 0.05 0.05 85 1015.2
20260904020234 76 126 3.0 6.0 0.00 0.05 0.05 85 1015.2
20260904020156 76 105 3.0 6.0 0.00 0.05 0.05 85 1015.2
20260904020046 76 111 3.0 7.0 0.00 0.05 0.05 84 1015.3
20260904015938 76 112 2.0 7.0 0.00 0.05 0.05 84 1015.2
20260904015851 76 112 3.0 7.0 0.00 0.05 0.05 85 1015.2
20260904015725 76 112 3.0 7.0 0.00 0.05 0.05 84 1015.2
20260904015637 76 103 3.0 7.0 0.00 0.05 0.05 84 1015.2
20260904015529 76 126 3.0 7.0 0.00 0.05 0.05 84 1015.2
20260904015422 76 113 4.0 7.0 0.00 0.05 0.05 84 1015.2
20260904015334 76 113 4.0 7.0 0.00 0.05 0.05 84 1015.2
20260904015227 76 122 4.0 7.0 0.00 0.05 0.05 84 1015.1
20260904015139 76 110 4.0 7.0 0.00 0.05 0.05 84 1015.1
20260904015031 76 113 4.0 7.0 0.00 0.05 0.05 84 1015.2
20260904014927 76 128 4.0 7.0 0.00 0.05 0.05 84 1015.1
20260904014839 76 134 4.0 7.0 0.00 0.05 0.05 84 1015.0
20260904014750 76 116 4.0 8.0 0.00 0.05 0.05 84 1015.1
20260904014651 76 116 4.0 8.0 0.00 0.05 0.05 84 1015.1
20260904014523 76 126 4.0 8.0 0.00 0.05 0.05 84 1015.1
20260904014436 76 148 4.0 8.0 0.00 0.05 0.05 84 1015.0
20260904014327 76 143 3.0 8.0 0.00 0.05 0.05 84 1014.9
20260904014240 76 152 3.0 8.0 0.00 0.05 0.05 84 1014.9
20260904014133 76 147 4.0 8.0 0.00 0.05 0.05 84 1014.9
20260904014049 76 148 4.0 8.0 0.00 0.05 0.05 84 1014.8
20260904013920 76 144 4.0 7.0 0.00 0.05 0.05 84 1014.9
20260904013833 76 115 5.0 7.0 0.00 0.05 0.05 84 1014.9
20260904013746 76 150 5.0 7.0 0.00 0.05 0.05 84 1014.9
20260904013636 76 138 4.0 7.0 0.00 0.05 0.05 84 1014.9
20260904013548 76 134 4.0 8.0 0.00 0.05 0.05 84 1014.9
20260904013440 76 153 4.0 9.0 0.00 0.05 0.05 84 1014.8
20260904013332 76 132 4.0 9.0 0.00 0.05 0.05 84 1014.8
20260904013242 76 119 4.0 9.0 0.00 0.05 0.05 84 1014.9
20260904013145 77 130 4.0 9.0 0.00 0.05 0.05 84 1014.8
20260904013035 77 132 4.0 9.0 0.00 0.05 0.05 84 1014.8
20260904012951 77 134 4.0 9.0 0.00 0.05 0.05 84 1014.9
20260904012822 77 127 5.0 9.0 0.00 0.05 0.05 84 1014.9
20260904012734 77 122 5.0 9.0 0.00 0.05 0.05 84 1014.9
20260904012647 77 150 4.0 9.0 0.00 0.05 0.05 84 1014.8
20260904012537 77 148 4.0 8.0 0.00 0.05 0.05 83 1014.9
20260904012428 77 142 5.0 9.0 0.00 0.05 0.05 83 1015.0
20260904012340 77 130 5.0 9.0 0.00 0.05 0.05 83 1014.9
20260904012252 77 150 3.0 9.0 0.00 0.05 0.05 83 1014.9
20260904012144 77 142 3.0 9.0 0.00 0.05 0.05 83 1014.9
20260904012056 77 146 3.0 9.0 0.00 0.05 0.05 83 1014.9
20260904012008 77 144 3.0 9.0 0.00 0.05 0.05 83 1014.9
20260904011903 77 141 3.0 9.0 0.00 0.05 0.05 83 1014.9
20260904011815 77 140 3.0 9.0 0.00 0.05 0.05 83 1014.8
20260904011718 77 150 4.0 9.0 0.00 0.05 0.05 83 1014.9
20260904011529 77 140 4.0 8.0 0.00 0.05 0.05 83 1014.9
20260904011441 77 140 5.0 8.0 0.00 0.05 0.05 83 1014.9
20260904011353 77 127 4.0 8.0 0.00 0.05 0.05 83 1014.9
20260904011225 77 141 4.0 8.0 0.00 0.05 0.05 83 1014.9
20260904011136 77 137 5.0 8.0 0.00 0.05 0.05 83 1014.9
20260904011029 77 120 5.0 8.0 0.00 0.05 0.05 83 1014.9
20260904010925 77 121 5.0 8.0 0.00 0.05 0.05 83 1014.9
20260904010837 77 135 3.0 8.0 0.00 0.05 0.05 83 1014.9
20260904010728 77 136 3.0 8.0 0.00 0.05 0.05 83 1014.9
20260904010640 77 143 4.0 10.0 0.00 0.05 0.05 83 1014.9
20260904010531 77 146 5.0 10.0 0.00 0.05 0.05 83 1014.8
20260904010423 77 140 5.0 10.0 0.00 0.05 0.05 83 1014.9
20260904010337 77 128 5.0 10.0 0.00 0.05 0.05 83 1014.8
20260904010248 77 138 5.0 10.0 0.00 0.05 0.05 83 1014.8
20260904010210 77 144 5.0 10.0 0.00 0.05 0.05 83 1014.8
20260904010023 77 160 6.0 10.0 0.00 0.05 0.05 83 1014.9
20260904005936 77 139 6.0 10.0 0.00 0.05 0.05 83 1014.9
20260904005827 77 151 5.0 10.0 0.00 0.05 0.05 83 1014.8
20260904005739 77 157 4.0 10.0 0.00 0.05 0.05 83 1014.8
20260904005631 77 123 4.0 10.0 0.00 0.05 0.05 83 1014.8
20260904005524 77 151 5.0 10.0 0.00 0.05 0.05 83 1014.8
20260904005435 77 153 5.0 10.0 0.00 0.05 0.05 83 1014.9
20260904005349 77 138 5.0 10.0 0.00 0.05 0.05 83 1014.9
20260904005300 77 154 4.0 10.0 0.00 0.05 0.05 83 1014.8
20260904005150 77 155 6.0 10.0 0.00 0.05 0.05 83 1014.9
20260904005026 77 134 5.0 10.0 0.00 0.05 0.05 84 1014.9
20260904004938 77 137 5.0 9.0 0.00 0.05 0.05 84 1014.8
20260904004830 77 144 5.0 9.0 0.00 0.05 0.05 84 1014.9
20260904004721 77 155 5.0 9.0 0.00 0.05 0.05 84 1014.8
20260904004644 77 130 5.0 9.0 0.00 0.05 0.05 84 1014.8
20260904004535 77 153 5.0 9.0 0.00 0.05 0.05 84 1014.8
20260904004428 77 131 5.0 9.0 0.00 0.05 0.05 84 1014.8
20260904004320 77 150 5.0 10.0 0.00 0.05 0.05 84 1014.8
20260904004236 77 137 6.0 10.0 0.00 0.05 0.05 84 1014.7
20260904004129 77 131 6.0 10.0 0.00 0.05 0.05 84 1014.8
20260904004022 77 149 4.0 10.0 0.00 0.05 0.05 84 1014.8
20260904003935 77 144 4.0 13.0 0.00 0.05 0.05 84 1014.7
20260904003825 77 146 5.0 13.0 0.00 0.05 0.05 84 1014.7
20260904003736 77 138 4.0 13.0 0.00 0.05 0.05 84 1014.6
20260904003628 77 153 5.0 13.0 0.00 0.05 0.05 84 1014.6
20260904003521 77 149 6.0 13.0 0.00 0.05 0.05 84 1014.7
20260904003438 77 131 6.0 13.0 0.00 0.05 0.05 84 1014.7
20260904003329 78 133 6.0 13.0 0.00 0.05 0.05 84 1014.7
20260904003240 77 134 7.0 13.0 0.00 0.05 0.05 84 1014.7
20260904003201 78 146 7.0 13.0 0.00 0.05 0.05 84 1014.7
20260904003033 77 119 6.0 10.0 0.00 0.05 0.05 84 1014.7
20260904002945 78 138 6.0 10.0 0.00 0.05 0.05 84 1014.8
20260904002857 78 147 7.0 10.0 0.00 0.05 0.05 84 1014.8
20260904002727 78 158 7.0 10.0 0.00 0.05 0.05 84 1014.8
20260904002639 78 133 6.0 9.0 0.00 0.05 0.05 84 1014.8
20260904002535 78 141 6.0 9.0 0.00 0.05 0.05 84 1014.7
20260904002427 78 127 5.0 8.0 0.00 0.05 0.05 84 1014.8
20260904002339 78 134 5.0 7.0 0.00 0.05 0.05 84 1014.8
20260904002232 78 137 4.0 8.0 0.00 0.05 0.05 84 1014.8
20260904002123 78 125 4.0 9.0 0.00 0.05 0.05 84 1014.8
20260904002034 78 111 3.0 9.0 0.00 0.05 0.05 84 1014.9
20260904001947 78 127 3.0 9.0 0.00 0.05 0.05 84 1014.8
20260904001839 78 126 3.0 9.0 0.00 0.05 0.05 84 1014.8
20260904001732 78 117 3.0 9.0 0.00 0.05 0.05 84 1014.8
20260904001657 78 144 4.0 9.0 0.00 0.05 0.05 84 1014.8
20260904001549 78 143 4.0 9.0 0.00 0.05 0.05 84 1014.7
20260904001500 78 126 5.0 9.0 0.00 0.05 0.05 84 1014.7
20260904001332 78 138 6.0 9.0 0.00 0.05 0.05 83 1014.7
20260904001225 78 132 5.0 8.0 0.00 0.05 0.05 84 1014.7
20260904001137 78 126 4.0 8.0 0.00 0.05 0.05 83 1014.7
20260904001028 78 141 4.0 7.0 0.00 0.05 0.05 84 1014.7
20260904000940 78 141 4.0 7.0 0.00 0.05 0.05 83 1014.7
20260904000832 78 145 4.0 7.0 0.00 0.05 0.05 83 1014.7
20260904000728 78 142 4.0 7.0 0.00 0.05 0.05 83 1014.7
20260904000639 78 140 5.0 7.0 0.00 0.05 0.05 83 1014.7
20260904000530 78 131 4.0 7.0 0.00 0.05 0.05 83 1014.8
20260904000425 78 144 4.0 7.0 0.00 0.05 0.05 83 1014.7
20260904000335 78 122 4.0 7.0 0.00 0.05 0.05 83 1014.7
20260904000245 78 127 4.0 7.0 0.00 0.05 0.05 83 1014.7
20260904000147 78 136 4.0 5.0 0.00 0.05 0.05 83 1014.8
20260904000039 78 136 4.0 5.0 0.00 0.05 0.05 83 1014.8
20260903235951 78 126 3.0 6.0 0.00 0.05 0.05 83 1014.8
20260903235904 79 128 3.0 4.0 0.00 0.05 0.05 83 1014.8
20260903235758 79 128 3.0 4.0 0.00 0.05 0.05 83 1014.8
20260903235650 79 130 3.0 4.0 0.00 0.05 0.05 83 1014.8
20260903235542 79 122 3.0 4.0 0.00 0.05 0.05 83 1014.9
20260903235432 79 122 2.0 6.0 0.00 0.05 0.05 83 1014.8
20260903235325 79 111 2.0 6.0 0.00 0.05 0.05 83 1014.7
20260903235237 79 111 3.0 6.0 0.00 0.05 0.05 83 1014.8
20260903235129 79 111 2.0 6.0 0.00 0.05 0.05 83 1014.8
20260903235042 79 86 3.0 6.0 0.00 0.05 0.05 83 1014.8
20260903234954 79 125 3.0 6.0 0.00 0.05 0.05 83 1014.8
20260903234904 79 144 3.0 6.0 0.00 0.05 0.05 83 1014.8
20260903234756 79 121 3.0 6.0 0.00 0.05 0.05 83 1014.8
20260903234700 79 121 3.0 6.0 0.00 0.05 0.05 83 1014.8
20260903234531 79 115 3.0 6.0 0.00 0.05 0.05 83 1014.8
20260903234424 79 111 3.0 6.0 0.00 0.05 0.05 83 1014.8
20260903234335 79 111 3.0 6.0 0.00 0.05 0.05 83 1014.8
20260903234227 79 74 3.0 4.0 0.00 0.05 0.05 83 1014.7
20260903234139 79 74 3.0 4.0 0.00 0.05 0.05 83 1014.7
20260903234032 79 101 4.0 4.0 0.00 0.05 0.05 83 1014.7
20260903233944 79 105 3.0 4.0 0.00 0.05 0.05 83 1014.8
20260903233835 79 94 3.0 4.0 0.00 0.05 0.05 83 1014.8
20260903233732 79 67 3.0 4.0 0.00 0.05 0.05 83 1014.8
20260903233624 79 67 2.0 5.0 0.00 0.05 0.05 83 1014.7
20260903233536 79 67 2.0 5.0 0.00 0.05 0.05 83 1014.7
20260903233449 79 67 2.0 5.0 0.00 0.05 0.05 83 1014.7
20260903233340 79 67 2.0 5.0 0.00 0.05 0.05 83 1014.8
20260903233230 79 53 2.0 5.0 0.00 0.05 0.05 83 1014.6
20260903233152 79 59 3.0 5.0 0.00 0.05 0.05 83 1014.6
20260903233024 80 41 3.0 5.0 0.00 0.05 0.05 83 1014.6
20260903232935 80 92 3.0 5.0 0.00 0.05 0.05 83 1014.7
20260903232831 80 76 3.0 6.0 0.00 0.05 0.05 83 1014.6
20260903232723 80 99 3.0 6.0 0.00 0.05 0.05 83 1014.6
20260903232634 80 99 3.0 6.0 0.00 0.05 0.05 83 1014.5
20260903232527 80 99 2.0 6.0 0.00 0.05 0.05 83 1014.6
20260903232440 80 92 1.0 6.0 0.00 0.05 0.05 83 1014.5
20260903232333 80 94 2.0 6.0 0.00 0.05 0.05 83 1014.4
20260903232246 80 94 3.0 6.0 0.00 0.05 0.05 83 1014.3
20260903232157 80 86 3.0 6.0 0.00 0.05 0.05 83 1014.4
20260903232032 80 86 3.0 6.0 0.00 0.05 0.05 82 1014.4
20260903231925 80 117 2.0 4.0 0.00 0.05 0.05 83 1014.3
20260903231837 80 117 2.0 4.0 0.00 0.05 0.05 83 1014.4
20260903231729 80 117 2.0 4.0 0.00 0.05 0.05 83 1014.3
20260903231652 80 117 3.0 4.0 0.00 0.05 0.05 83 1014.3
20260903231523 80 96 3.0 4.0 0.00 0.05 0.05 82 1014.3
20260903231436 80 102 3.0 4.0 0.00 0.05 0.05 82 1014.4
20260903231326 80 108 3.0 4.0 0.00 0.05 0.05 82 1014.3
20260903231222 80 115 3.0 4.0 0.00 0.05 0.05 83 1014.4
20260903231133 80 115 3.0 4.0 0.00 0.05 0.05 83 1014.3
20260903231024 80 115 3.0 4.0 0.00 0.05 0.05 83 1014.3
20260903230936 80 101 3.0 7.0 0.00 0.05 0.05 82 1014.2
20260903230828 80 98 2.0 7.0 0.00 0.05 0.05 83 1014.3
20260903230720 80 133 2.0 7.0 0.00 0.05 0.05 83 1014.3
20260903230632 80 133 2.0 7.0 0.00 0.05 0.05 83 1014.3
20260903230524 80 133 3.0 7.0 0.00 0.05 0.05 82 1014.3
20260903230435 80 108 3.0 7.0 0.00 0.05 0.05 82 1014.3
20260903230352 80 105 3.0 7.0 0.00 0.05 0.05 82 1014.3
20260903230222 79 88 4.0 7.0 0.00 0.05 0.05 82 1014.2
20260903230144 79 88 4.0 7.0 0.00 0.05 0.05 83 1014.3
20260903230036 79 110 3.0 8.0 0.00 0.05 0.05 83 1014.2
20260903225948 79 110 3.0 8.0 0.00 0.05 0.05 83 1014.3
20260903225859 79 110 3.0 8.0 0.00 0.05 0.05 83 1014.3
20260903225751 79 110 3.0 8.0 0.00 0.05 0.05 83 1014.3
20260903225641 79 114 3.0 8.0 0.00 0.05 0.05 83 1014.3
20260903225555 79 114 4.0 8.0 0.00 0.05 0.05 83 1014.3
20260903225506 79 140 4.0 8.0 0.00 0.05 0.05 83 1014.3
20260903225358 79 123 4.0 8.0 0.00 0.05 0.05 82 1014.2
20260903225231 79 126 4.0 8.0 0.00 0.05 0.05 82 1014.2
20260903225124 79 158 4.0 7.0 0.00 0.05 0.05 82 1014.2
20260903225036 79 142 4.0 7.0 0.00 0.05 0.05 82 1014.2
20260903224926 79 123 4.0 7.0 0.00 0.05 0.05 82 1014.2
20260903224839 79 140 4.0 7.0 0.00 0.05 0.05 83 1014.2
20260903224751 79 126 3.0 7.0 0.00 0.05 0.05 83 1014.2
20260903224714 79 148 4.0 7.0 0.00 0.05 0.05 82 1014.3
20260903224524 79 127 4.0 9.0 0.00 0.05 0.05 82 1014.3
20260903224437 79 127 4.0 9.0 0.00 0.05 0.05 82 1014.3
20260903224334 79 123 5.0 9.0 0.00 0.05 0.05 82 1014.2
20260903224224 79 117 5.0 9.0 0.00 0.05 0.05 83 1014.2
20260903224136 79 138 5.0 9.0 0.00 0.05 0.05 83 1014.2
20260903224029 79 128 4.0 9.0 0.00 0.05 0.05 83 1014.2
20260903223922 79 126 4.0 9.0 0.00 0.05 0.05 83 1014.3
20260903223833 79 128 5.0 9.0 0.00 0.05 0.05 83 1014.3
20260903223725 79 155 5.0 9.0 0.00 0.05 0.05 83 1014.2
20260903223638 79 129 5.0 9.0 0.00 0.05 0.05 83 1014.2
20260903223534 79 142 5.0 9.0 0.00 0.05 0.05 83 1014.2
20260903223427 79 123 6.0 9.0 0.00 0.05 0.05 83 1014.2
20260903223340 79 125 6.0 9.0 0.00 0.05 0.05 83 1014.2
20260903223253 79 121 5.0 11.0 0.00 0.05 0.05 83 1014.2
20260903223153 79 129 6.0 11.0 0.00 0.05 0.05 83 1014.2
20260903223025 79 117 5.0 11.0 0.00 0.05 0.05 83 1014.2
20260903222938 79 148 6.0 11.0 0.00 0.05 0.05 83 1014.3
20260903222831 79 119 6.0 11.0 0.00 0.05 0.05 83 1014.3
20260903222723 79 115 6.0 11.0 0.00 0.05 0.05 83 1014.3
20260903222639 79 122 6.0 11.0 0.00 0.05 0.05 83 1014.3
20260903222532 79 123 7.0 11.0 0.00 0.05 0.05 83 1014.3
20260903222423 79 114 8.0 11.0 0.00 0.05 0.05 84 1014.3
20260903222336 79 121 6.0 11.0 0.00 0.05 0.05 84 1014.4
20260903222228 79 127 4.0 8.0 0.00 0.05 0.05 85 1014.3
20260903222120 79 128 5.0 8.0 0.00 0.05 0.05 85 1014.3
20260903222032 79 91 4.0 8.0 0.00 0.05 0.05 84 1014.2
20260903221925 79 121 5.0 8.0 0.00 0.05 0.05 84 1014.3
20260903221842 79 139 5.0 8.0 0.00 0.05 0.05 85 1014.3
20260903221755 79 129 5.0 8.0 0.00 0.05 0.05 84 1014.3
20260903221716 79 132 5.0 8.0 0.00 0.05 0.05 84 1014.4
20260903221607 79 105 4.0 7.0 0.00 0.05 0.05 84 1014.3
20260903221519 79 94 4.0 7.0 0.00 0.05 0.05 85 1014.4
20260903221409 79 107 3.0 7.0 0.00 0.05 0.05 85 1014.5
20260903221301 79 94 3.0 8.0 0.00 0.05 0.05 85 1014.4
20260903221132 79 105 3.0 8.0 0.00 0.05 0.05 85 1014.4
20260903221024 79 90 3.0 9.0 0.00 0.05 0.05 85 1014.5
20260903220936 79 119 4.0 9.0 0.00 0.05 0.05 85 1014.4
20260903220848 79 97 3.0 9.0 0.00 0.05 0.05 85 1014.6
20260903220743 78 101 3.0 9.0 0.00 0.05 0.05 85 1014.4
20260903220635 78 109 4.0 9.0 0.00 0.05 0.05 85 1014.4
20260903220528 78 117 5.0 9.0 0.00 0.05 0.05 85 1014.4
20260903220439 78 118 5.0 9.0 0.00 0.05 0.05 86 1014.4
20260903220330 78 126 6.0 9.0 0.00 0.05 0.05 86 1014.4
20260903220239 78 124 5.0 10.0 0.00 0.05 0.05 86 1014.4
20260903220200 78 130 5.0 10.0 0.00 0.05 0.05 86 1014.4
20260903220029 78 134 7.0 10.0 0.00 0.05 0.05 86 1014.2
20260903215920 78 115 7.0 10.0 0.00 0.05 0.05 86 1014.2
20260903215837 78 119 6.0 10.0 0.00 0.05 0.05 86 1014.2
20260903215729 78 117 6.0 11.0 0.00 0.05 0.05 87 1014.2
20260903215642 78 113 5.0 11.0 0.00 0.05 0.05 87 1014.2
20260903215533 78 132 6.0 14.0 0.00 0.05 0.05 87 1014.2
20260903215425 77 157 8.0 14.0 0.01 0.05 0.05 87 1014.1
20260903215337 77 114 7.0 14.0 0.02 0.05 0.05 87 1014.1
20260903215227 77 144 6.0 14.0 0.04 0.05 0.05 87 1014.1
20260903215140 77 140 6.0 14.0 0.05 0.05 0.05 88 1014.3
20260903215053 77 135 7.0 14.0 0.05 0.05 0.05 88 1014.3
20260903215004 77 132 7.0 14.0 0.05 0.05 0.05 88 1014.2
20260903214900 77 137 7.0 14.0 0.05 0.05 0.05 88 1014.2
20260903214751 77 159 6.0 14.0 0.05 0.05 0.05 88 1014.2
20260903214712 77 169 6.0 14.0 0.05 0.05 0.05 89 1014.2
20260903214522 77 148 5.0 14.0 0.05 0.05 0.05 89 1014.4
20260903214435 77 147 6.0 14.0 0.05 0.05 0.05 89 1014.4
20260903214347 77 150 7.0 14.0 0.05 0.05 0.05 89 1014.4
20260903214259 77 142 6.0 11.0 0.05 0.05 0.05 89 1014.4
20260903214151 77 148 6.0 11.0 0.05 0.05 0.05 89 1014.4
20260903214102 77 169 4.0 8.0 0.05 0.05 0.05 89 1014.5
20260903213952 77 145 4.0 9.0 0.05 0.05 0.05 89 1014.4
20260903213824 77 154 3.0 11.0 0.05 0.05 0.05 90 1014.6
20260903213721 77 153 3.0 11.0 0.05 0.05 0.05 90 1014.6
20260903213633 77 153 4.0 11.0 0.05 0.05 0.05 90 1014.6
20260903213525 77 149 4.0 11.0 0.05 0.05 0.05 90 1014.6
20260903213437 77 116 4.0 11.0 0.05 0.05 0.05 90 1014.6
20260903213329 76 107 5.0 11.0 0.05 0.05 0.05 90 1014.6
20260903213240 76 116 6.0 11.0 0.05 0.05 0.05 89 1014.5
20260903213201 76 115 7.0 11.0 0.05 0.05 0.05 90 1014.5
20260903213033 76 109 8.0 11.0 0.05 0.05 0.05 90 1014.4
20260903212930 76 133 5.0 9.0 0.05 0.05 0.05 90 1014.4
20260903212822 76 130 4.0 11.0 0.05 0.05 0.05 91 1014.4
20260903212733 76 144 4.0 12.0 0.05 0.05 0.05 90 1014.4
20260903212625 76 109 4.0 12.0 0.05 0.05 0.05 90 1014.3
20260903212537 76 134 3.0 12.0 0.05 0.05 0.05 90 1014.4
20260903212430 76 126 5.0 12.0 0.05 0.05 0.05 90 1014.5
20260903212321 76 123 6.0 12.0 0.05 0.05 0.05 90 1014.4
20260903212233 76 144 6.0 12.0 0.05 0.05 0.05 90 1014.4
20260903212125 76 169 6.0 12.0 0.05 0.05 0.05 89 1014.4
20260903212020 76 116 8.0 12.0 0.05 0.05 0.05 89 1014.5
20260903211932 76 119 8.0 12.0 0.05 0.05 0.05 89 1014.5
20260903211824 76 138 6.0 11.0 0.05 0.05 0.05 89 1014.5
20260903211737 76 138 4.0 10.0 0.05 0.05 0.05 90 1014.6
20260903211659 76 133 4.0 10.0 0.05 0.05 0.05 90 1014.6
20260903211531 76 113 6.0 10.0 0.05 0.05 0.05 89 1014.7
20260903211442 76 121 5.0 10.0 0.05 0.05 0.05 89 1014.7
20260903211333 76 116 5.0 10.0 0.05 0.05 0.05 89 1014.7
20260903211245 76 107 5.0 10.0 0.05 0.05 0.05 89 1014.7
20260903211158 76 148 4.0 9.0 0.05 0.05 0.05 89 1014.7
20260903211053 76 125 5.0 7.0 0.05 0.05 0.05 89 1014.7
20260903210924 76 150 4.0 8.0 0.05 0.05 0.05 88 1014.8
20260903210837 76 108 4.0 8.0 0.05 0.05 0.05 88 1014.8
20260903210728 76 89 3.0 9.0 0.05 0.05 0.05 88 1014.9
20260903210640 76 90 3.0 9.0 0.05 0.05 0.05 88 1014.8
20260903210533 76 117 4.0 9.0 0.05 0.05 0.05 87 1014.8
20260903210425 76 107 5.0 11.0 0.05 0.05 0.05 87 1014.9
20260903210337 76 130 4.0 13.0 0.05 0.05 0.05 87 1014.9
20260903210249 76 132 3.0 13.0 0.05 0.05 0.05 87 1014.8
20260903210215 76 103 3.0 13.0 0.05 0.05 0.05 86 1014.8
20260903210026 77 82 4.0 13.0 0.05 0.05 0.05 85 1014.9
20260903205939 77 47 5.0 13.0 0.05 0.05 0.05 85 1014.7
20260903205831 77 19 4.0 13.0 0.05 0.05 0.05 85 1014.7
20260903205723 77 86 6.0 13.0 0.05 0.05 0.05 84 1014.6
20260903205635 77 99 8.0 13.0 0.05 0.05 0.05 83 1014.5
20260903205548 78 103 9.0 13.0 0.05 0.05 0.05 82 1014.6
20260903205439 78 98 9.0 13.0 0.04 0.04 0.04 81 1014.7
20260903205330 79 95 5.0 11.0 0.02 0.02 0.02 82 1015.0
20260903205226 79 70 4.0 11.0 0.01 0.01 0.01 81 1015.2
20260903205139 79 57 5.0 11.0 0.00 0.00 0.00 80 1015.2
20260903205031 79 36 5.0 11.0 0.00 0.00 0.00 80 1015.3
20260903204944 79 5 6.0 11.0 0.00 0.00 0.00 80 1015.2
20260903204835 79 17 6.0 11.0 0.00 0.00 0.00 80 1015.3
20260903204726 79 17 7.0 11.0 0.00 0.00 0.00 78 1015.3
20260903204649 79 44 8.0 11.0 0.00 0.00 0.00 78 1015.2
20260903204540 80 50 7.0 11.0 0.00 0.00 0.00 78 1015.2
20260903204432 80 30 7.0 11.0 0.00 0.00 0.00 78 1015.2
20260903204347 80 40 6.0 11.0 0.00 0.00 0.00 78 1015.2
20260903204239 80 360 6.0 11.0 0.00 0.00 0.00 78 1015.3
20260903204130 80 36 6.0 11.0 0.00 0.00 0.00 77 1015.3
20260903204023 80 24 7.0 13.0 0.00 0.00 0.00 77 1015.3
20260903203934 80 9 6.0 14.0 0.00 0.00 0.00 77 1015.2
20260903203845 80 37 4.0 14.0 0.00 0.00 0.00 78 1015.2
20260903203757 80 355 4.0 14.0 0.00 0.00 0.00 78 1015.1
20260903203627 80 51 4.0 14.0 0.00 0.00 0.00 77 1015.2
20260903203540 80 19 5.0 14.0 0.00 0.00 0.00 77 1015.2
20260903203436 80 76 6.0 14.0 0.00 0.00 0.00 77 1015.1
20260903203347 81 327 7.0 14.0 0.00 0.00 0.00 76 1015.1
20260903203259 81 338 8.0 15.0 0.00 0.00 0.00 76 1015.2
20260903203159 81 22 8.0 15.0 0.00 0.00 0.00 76 1015.2
20260903203030 81 43 6.0 15.0 0.00 0.00 0.00 76 1015.3
20260903202923 81 360 7.0 15.0 0.00 0.00 0.00 75 1015.2
20260903202835 81 348 8.0 15.0 0.00 0.00 0.00 75 1015.3
20260903202727 81 40 9.0 15.0 0.00 0.00 0.00 74 1015.2
20260903202639 82 13 9.0 15.0 0.00 0.00 0.00 74 1015.3
20260903202535 82 9 10.0 15.0 0.00 0.00 0.00 74 1015.4
20260903202428 82 38 10.0 15.0 0.00 0.00 0.00 74 1015.4
20260903202340 82 25 11.0 15.0 0.00 0.00 0.00 75 1015.4
20260903202232 82 39 10.0 15.0 0.00 0.00 0.00 76 1015.5
20260903202145 82 23 9.0 13.0 0.00 0.00 0.00 77 1015.5
20260903202036 82 351 10.0 12.0 0.00 0.00 0.00 76 1015.4
20260903201929 82 13 9.0 12.0 0.00 0.00 0.00 77 1015.3
20260903201842 82 346 8.0 12.0 0.00 0.00 0.00 76 1015.3
20260903201733 82 15 8.0 12.0 0.00 0.00 0.00 76 1015.3
20260903201655 82 355 8.0 12.0 0.00 0.00 0.00 76 1015.3
20260903201530 82 24 7.0 12.0 0.00 0.00 0.00 77 1015.4
20260903201423 82 34 8.0 12.0 0.00 0.00 0.00 77 1015.4
20260903201336 82 18 7.0 12.0 0.00 0.00 0.00 76 1015.4
20260903201248 82 15 7.0 12.0 0.00 0.00 0.00 76 1015.4
20260903201139 82 14 7.0 12.0 0.00 0.00 0.00 76 1015.3
20260903201032 82 13 7.0 12.0 0.00 0.00 0.00 76 1015.6
20260903200923 82 314 8.0 12.0 0.00 0.00 0.00 76 1015.7
20260903200836 82 360 8.0 12.0 0.00 0.00 0.00 76 1015.8
20260903200731 82 355 7.0 11.0 0.00 0.00 0.00 77 1015.8
20260903200622 82 340 7.0 10.0 0.00 0.00 0.00 76 1015.7
20260903200535 82 17 8.0 10.0 0.00 0.00 0.00 75 1015.5
20260903200426 82 31 6.0 10.0 0.00 0.00 0.00 75 1015.4
20260903200338 82 22 5.0 10.0 0.00 0.00 0.00 75 1015.2
20260903200229 81 355 7.0 10.0 0.00 0.00 0.00 75 1015.1
20260903200152 81 19 6.0 10.0 0.00 0.00 0.00 75 1015.1
20260903200043 81 33 5.0 10.0 0.00 0.00 0.00 77 1015.0
20260903195954 81 30 4.0 9.0 0.00 0.00 0.00 76 1014.9
20260903195831 81 72 5.0 9.0 0.00 0.00 0.00 76 1015.0
20260903195722 81 20 4.0 9.0 0.00 0.00 0.00 76 1014.9
20260903195633 81 355 4.0 9.0 0.00 0.00 0.00 76 1014.9
20260903195525 81 16 4.0 9.0 0.00 0.00 0.00 77 1014.9
20260903195438 81 77 4.0 9.0 0.00 0.00 0.00 76 1014.9
20260903195221 81 15 5.0 9.0 0.00 0.00 0.00 76 1014.9
20260903195133 81 44 4.0 6.0 0.00 0.00 0.00 76 1014.9
20260903195030 81 355 4.0 9.0 0.00 0.00 0.00 76 1014.8
20260903194923 81 349 5.0 9.0 0.00 0.00 0.00 76 1014.9
20260903194834 81 348 5.0 9.0 0.00 0.00 0.00 75 1014.8
20260903194726 81 346 4.0 10.0 0.00 0.00 0.00 76 1014.8
20260903194648 81 25 4.0 10.0 0.00 0.00 0.00 77 1014.9
20260903194539 81 5 4.0 10.0 0.00 0.00 0.00 76 1014.9
20260903194430 81 72 4.0 10.0 0.00 0.00 0.00 76 1014.9
20260903194322 81 46 5.0 10.0 0.00 0.00 0.00 76 1014.9
20260903194235 81 5 5.0 10.0 0.00 0.00 0.00 76 1014.9
20260903194151 81 51 5.0 10.0 0.00 0.00 0.00 76 1014.9
20260903194022 81 54 5.0 10.0 0.00 0.00 0.00 76 1014.9
20260903193935 81 66 5.0 10.0 0.00 0.00 0.00 77 1014.9
20260903193847 80 82 5.0 10.0 0.00 0.00 0.00 78 1014.9
20260903193738 80 69 5.0 10.0 0.00 0.00 0.00 78 1014.8
20260903193631 80 65 4.0 8.0 0.00 0.00 0.00 78 1014.8
20260903193522 80 22 3.0 8.0 0.00 0.00 0.00 78 1014.8
20260903193433 80 42 3.0 10.0 0.00 0.00 0.00 78 1014.8
20260903193326 80 32 3.0 10.0 0.00 0.00 0.00 79 1014.8
20260903193241 80 106 3.0 10.0 0.00 0.00 0.00 79 1014.9
20260903193203 79 27 3.0 10.0 0.00 0.00 0.00 79 1015.0
20260903193032 79 52 4.0 10.0 0.00 0.00 0.00 78 1014.9
20260903192944 79 26 5.0 10.0 0.00 0.00 0.00 78 1015.0
20260903192857 79 5 6.0 10.0 0.00 0.00 0.00 77 1015.1
20260903192726 79 24 7.0 10.0 0.00 0.00 0.00 78 1015.1
20260903192637 79 14 5.0 10.0 0.00 0.00 0.00 78 1015.2
20260903192549 79 13 5.0 9.0 0.00 0.00 0.00 79 1015.3
20260903192500 79 19 5.0 9.0 0.00 0.00 0.00 79 1015.3
20260903192331 79 34 5.0 9.0 0.00 0.00 0.00 78 1015.4
20260903192224 79 46 6.0 9.0 0.00 0.00 0.00 78 1015.5
20260903192121 79 29 6.0 9.0 0.00 0.00 0.00 78 1015.6
20260903192033 79 44 6.0 9.0 0.00 0.00 0.00 78 1015.5
20260903191945 79 12 4.0 9.0 0.00 0.00 0.00 79 1015.6
20260903191837 79 32 4.0 9.0 0.00 0.00 0.00 78 1015.5
20260903191749 79 9 4.0 9.0 0.00 0.00 0.00 78 1015.7
20260903191650 79 24 3.0 10.0 0.00 0.00 0.00 78 1015.7
20260903191522 79 17 5.0 10.0 0.00 0.00 0.00 78 1015.6
20260903191434 79 16 5.0 10.0 0.00 0.00 0.00 78 1015.6
20260903191326 79 338 6.0 10.0 0.00 0.00 0.00 78 1015.5
20260903191237 79 34 5.0 10.0 0.00 0.00 0.00 78 1015.6
20260903191151 79 28 5.0 10.0 0.00 0.00 0.00 78 1015.6
20260903191042 79 346 5.0 10.0 0.00 0.00 0.00 78 1015.7
20260903190933 79 360 7.0 10.0 0.00 0.00 0.00 78 1015.8
20260903190844 79 22 7.0 10.0 0.00 0.00 0.00 78 1015.8
20260903190756 79 86 5.0 11.0 0.00 0.00 0.00 78 1015.8
20260903190708 79 42 3.0 11.0 0.00 0.00 0.00 78 1015.8
20260903190600 79 27 5.0 11.0 0.00 0.00 0.00 77 1015.8
20260903190452 79 46 6.0 11.0 0.00 0.00 0.00 77 1015.7
20260903190351 79 15 7.0 11.0 0.00 0.00 0.00 77 1015.8
20260903190221 79 355 7.0 11.0 0.00 0.00 0.00 77 1015.7
20260903190142 79 355 7.0 11.0 0.00 0.00 0.00 77 1015.8
20260903190038 79 18 6.0 11.0 0.00 0.00 0.00 77 1015.8
20260903185949 79 59 4.0 11.0 0.00 0.00 0.00 78 1015.9
20260903185840 79 61 5.0 11.0 0.00 0.00 0.00 77 1015.9
20260903185732 79 46 6.0 11.0 0.00 0.00 0.00 77 1015.9
20260903185645 79 360 5.0 11.0 0.00 0.00 0.00 78 1016.0
20260903185535 79 360 4.0 9.0 0.00 0.00 0.00 78 1016.0
20260903185447 79 21 4.0 9.0 0.00 0.00 0.00 78 1016.0
20260903185337 79 70 5.0 9.0 0.00 0.00 0.00 78 1016.0
20260903185250 79 34 5.0 9.0 0.00 0.00 0.00 78 1016.1
20260903185121 79 33 6.0 9.0 0.00 0.00 0.00 77 1016.1
20260903185034 79 355 6.0 9.0 0.00 0.00 0.00 77 1016.0
20260903184930 79 65 5.0 9.0 0.00 0.00 0.00 77 1016.1
20260903184823 79 38 4.0 9.0 0.00 0.00 0.00 77 1016.0
20260903184734 79 23 6.0 9.0 0.00 0.00 0.00 77 1016.0
20260903184658 79 5 6.0 10.0 0.00 0.00 0.00 77 1016.0
20260903184528 79 18 6.0 11.0 0.00 0.00 0.00 77 1016.0
20260903184439 79 5 5.0 11.0 0.00 0.00 0.00 77 1016.0
20260903184332 79 5 5.0 11.0 0.00 0.00 0.00 77 1016.0
20260903184244 79 19 6.0 11.0 0.00 0.00 0.00 77 1016.0
20260903184135 79 5 5.0 11.0 0.00 0.00 0.00 77 1016.0
20260903184030 79 30 4.0 11.0 0.00 0.00 0.00 77 1016.2
20260903183922 79 18 6.0 11.0 0.00 0.00 0.00 76 1016.1
20260903183833 79 360 7.0 11.0 0.00 0.00 0.00 76 1016.1
20260903183725 79 9 7.0 11.0 0.00 0.00 0.00 77 1016.1
20260903183635 79 346 6.0 13.0 0.00 0.00 0.00 76 1016.1
20260903183548 79 37 5.0 13.0 0.00 0.00 0.00 77 1016.1
20260903183438 79 5 5.0 13.0 0.00 0.00 0.00 77 1016.1
20260903183330 79 360 5.0 13.0 0.00 0.00 0.00 77 1016.2
20260903183225 79 332 6.0 13.0 0.00 0.00 0.00 77 1016.1
20260903183147 79 338 6.0 13.0 0.00 0.00 0.00 77 1016.1
20260903183020 79 327 6.0 13.0 0.00 0.00 0.00 77 1016.1
20260903182933 79 342 8.0 13.0 0.00 0.00 0.00 76 1016.1
20260903182845 79 21 8.0 13.0 0.00 0.00 0.00 77 1016.2
20260903182758 79 23 6.0 11.0 0.00 0.00 0.00 77 1016.2
20260903182629 79 337 6.0 12.0 0.00 0.00 0.00 77 1016.1
20260903182522 79 319 5.0 12.0 0.00 0.00 0.00 78 1016.2
20260903182433 79 28 4.0 12.0 0.00 0.00 0.00 78 1016.3
20260903182330 79 11 3.0 13.0 0.00 0.00 0.00 78 1016.2
20260903182222 79 325 4.0 13.0 0.00 0.00 0.00 78 1016.2
20260903182135 79 323 3.0 13.0 0.00 0.00 0.00 78 1016.2
20260903182027 79 345 4.0 13.0 0.00 0.00 0.00 77 1016.2
20260903181939 79 325 6.0 13.0 0.00 0.00 0.00 77 1016.3
20260903181832 79 355 8.0 18.0 0.00 0.00 0.00 76 1016.3
20260903181744 79 298 8.0 18.0 0.00 0.00 0.00 76 1016.3
20260903181706 79 311 9.0 18.0 0.00 0.00 0.00 76 1016.4
20260903181536 79 326 8.0 18.0 0.00 0.00 0.00 76 1016.4
20260903181432 79 302 7.0 18.0 0.00 0.00 0.00 76 1016.4
20260903181325 80 309 8.0 18.0 0.00 0.00 0.00 76 1016.4
20260903181237 80 306 8.0 18.0 0.00 0.00 0.00 75 1016.5
20260903181129 80 327 10.0 18.0 0.00 0.00 0.00 75 1016.5
20260903181040 80 313 9.0 18.0 0.00 0.00 0.00 75 1016.5
20260903180953 80 291 7.0 18.0 0.00 0.00 0.00 75 1016.5
20260903180824 80 355 9.0 18.0 0.00 0.00 0.00 74 1016.5
20260903180736 80 316 11.0 25.0 0.00 0.00 0.00 74 1016.6
20260903180628 80 281 10.0 25.0 0.00 0.00 0.00 74 1016.6
20260903180545 80 329 8.0 25.0 0.00 0.00 0.00 74 1016.5
20260903180456 80 315 7.0 25.0 0.00 0.00 0.00 74 1016.5
20260903180408 81 321 9.0 25.0 0.00 0.00 0.00 74 1016.5
20260903180259 81 300 11.0 25.0 0.00 0.00 0.00 73 1016.5
20260903180221 81 298 13.0 25.0 0.00 0.00 0.00 72 1016.5
20260903180030 81 325 13.0 25.0 0.00 0.00 0.00 72 1016.6
20260903175943 82 323 15.0 25.0 0.00 0.00 0.00 71 1016.5
20260903175856 82 308 15.0 22.0 0.00 0.00 0.00 71 1016.6
20260903175728 82 322 13.0 22.0 0.00 0.00 0.00 71 1016.6
20260903175639 83 298 12.0 22.0 0.00 0.00 0.00 72 1016.6
20260903175535 83 294 14.0 22.0 0.00 0.00 0.00 72 1016.5
20260903175426 83 297 14.0 22.0 0.00 0.00 0.00 70 1016.5
20260903175338 84 311 11.0 21.0 0.00 0.00 0.00 71 1016.5
20260903175230 84 300 11.0 21.0 0.00 0.00 0.00 70 1016.5
20260903175142 84 273 13.0 21.0 0.00 0.00 0.00 70 1016.4
20260903175033 85 318 14.0 21.0 0.00 0.00 0.00 71 1016.5
20260903174923 85 293 12.0 20.0 0.00 0.00 0.00 71 1016.4
20260903174835 86 302 12.0 19.0 0.00 0.00 0.00 71 1016.4
20260903174747 86 288 11.0 19.0 0.00 0.00 0.00 70 1016.4
20260903174710 86 262 10.0 15.0 0.00 0.00 0.00 71 1016.4
20260903174542 86 304 7.0 15.0 0.00 0.00 0.00 70 1016.2
20260903174437 86 270 6.0 12.0 0.00 0.00 0.00 70 1016.1
20260903174348 86 252 6.0 14.0 0.00 0.00 0.00 70 1016.0
20260903174258 86 292 8.0 17.0 0.00 0.00 0.00 70 1016.0
20260903174130 86 323 7.0 17.0 0.00 0.00 0.00 70 1016.1
20260903174041 86 317 6.0 18.0 0.00 0.00 0.00 71 1016.0
20260903173954 86 281 6.0 18.0 0.00 0.00 0.00 71 1016.0
20260903173845 86 287 6.0 18.0 0.00 0.00 0.00 70 1016.1
20260903173757 86 299 9.0 18.0 0.00 0.00 0.00 69 1016.0
20260903173648 86 276 9.0 18.0 0.00 0.00 0.00 69 1016.0
20260903173559 87 298 12.0 18.0 0.00 0.00 0.00 69 1016.0
20260903173429 87 279 12.0 18.0 0.00 0.00 0.00 68 1016.0
20260903173325 87 304 12.0 18.0 0.00 0.00 0.00 69 1016.0
20260903173235 87 346 13.0 18.0 0.00 0.00 0.00 68 1015.9
20260903173157 87 300 13.0 18.0 0.00 0.00 0.00 69 1015.9
20260903173028 88 320 12.0 17.0 0.00 0.00 0.00 69 1015.9
20260903172939 88 312 10.0 17.0 0.00 0.00 0.00 70 1015.8
20260903172830 88 307 9.0 13.0 0.00 0.00 0.00 70 1015.7
20260903172742 88 273 8.0 13.0 0.00 0.00 0.00 71 1015.8
20260903172633 88 324 7.0 12.0 0.00 0.00 0.00 71 1015.6
20260903172524 88 344 6.0 12.0 0.00 0.00 0.00 71 1015.6
20260903172441 88 286 7.0 12.0 0.00 0.00 0.00 70 1015.5
20260903172332 88 303 7.0 12.0 0.00 0.00 0.00 69 1015.5
20260903172225 89 301 7.0 11.0 0.00 0.00 0.00 69 1015.5
20260903172136 89 275 7.0 11.0 0.00 0.00 0.00 70 1015.5
20260903172029 89 320 7.0 11.0 0.00 0.00 0.00 69 1015.5
20260903171940 89 278 7.0 11.0 0.00 0.00 0.00 69 1015.4
20260903171831 89 267 6.0 11.0 0.00 0.00 0.00 69 1015.5
20260903171723 89 319 6.0 11.0 0.00 0.00 0.00 69 1015.5
20260903171649 89 309 7.0 11.0 0.00 0.00 0.00 69 1015.4
20260903171540 89 261 8.0 11.0 0.00 0.00 0.00 68 1015.4
20260903171431 89 302 7.0 11.0 0.00 0.00 0.00 67 1015.4
20260903171323 90 259 5.0 11.0 0.00 0.00 0.00 69 1015.4
20260903171235 89 229 5.0 11.0 0.00 0.00 0.00 69 1015.3
20260903171126 89 270 6.0 12.0 0.00 0.00 0.00 68 1015.4
20260903171038 90 317 5.0 12.0 0.00 0.00 0.00 68 1015.3
20260903170930 90 281 5.0 14.0 0.00 0.00 0.00 68 1015.3
20260903170843 89 276 5.0 15.0 0.00 0.00 0.00 67 1015.3
20260903170737 90 311 6.0 15.0 0.00 0.00 0.00 67 1015.3
20260903170627 90 298 7.0 15.0 0.00 0.00 0.00 66 1015.2
20260903170540 90 240 6.0 15.0 0.00 0.00 0.00 67 1015.2
20260903170432 90 289 6.0 15.0 0.00 0.00 0.00 67 1015.2
20260903170323 90 290 8.0 15.0 0.00 0.00 0.00 66 1015.2
20260903170235 90 276 9.0 15.0 0.00 0.00 0.00 66 1015.1
20260903170157 90 288 9.0 15.0 0.00 0.00 0.00 67 1015.1
20260903170048 90 282 9.0 15.0 0.00 0.00 0.00 67 1015.1
20260903165939 90 296 8.0 11.0 0.00 0.00 0.00 66 1015.1
20260903165834 90 300 7.0 11.0 0.00 0.00 0.00 67 1015.0
20260903165727 90 273 9.0 11.0 0.00 0.00 0.00 68 1015.0
20260903165639 90 290 7.0 11.0 0.00 0.00 0.00 68 1014.9
20260903165531 90 302 4.0 9.0 0.00 0.00 0.00 70 1014.9
20260903165422 90 306 3.0 9.0 0.00 0.00 0.00 69 1014.8
20260903165334 90 261 5.0 9.0 0.00 0.00 0.00 68 1014.8
20260903165245 90 300 4.0 11.0 0.00 0.00 0.00 68 1014.7
20260903165136 90 262 4.0 11.0 0.00 0.00 0.00 68 1014.7
20260903165028 90 285 5.0 11.0 0.00 0.00 0.00 68 1014.7
20260903164943 90 305 5.0 11.0 0.00 0.00 0.00 68 1014.7
20260903164835 90 302 5.0 11.0 0.00 0.00 0.00 68 1014.7
20260903164726 90 294 5.0 11.0 0.00 0.00 0.00 69 1014.7
20260903164648 90 296 5.0 11.0 0.00 0.00 0.00 69 1014.7
20260903164539 90 315 7.0 11.0 0.00 0.00 0.00 68 1014.6
20260903164432 90 289 6.0 11.0 0.00 0.00 0.00 68 1014.7
20260903164324 90 292 5.0 10.0 0.00 0.00 0.00 69 1014.6
20260903164235 90 298 5.0 10.0 0.00 0.00 0.00 68 1014.5
20260903164128 90 296 5.0 10.0 0.00 0.00 0.00 69 1014.6
20260903164023 90 288 5.0 10.0 0.00 0.00 0.00 68 1014.6
20260903163936 90 275 3.0 8.0 0.00 0.00 0.00 70 1014.4
20260903163847 90 323 3.0 8.0 0.00 0.00 0.00 72 1014.5
20260903163737 90 250 3.0 8.0 0.00 0.00 0.00 71 1014.5
20260903163628 90 294 4.0 8.0 0.00 0.00 0.00 69 1014.4
20260903163541 89 302 5.0 8.0 0.00 0.00 0.00 69 1014.4
20260903163453 89 315 4.0 8.0 0.00 0.00 0.00 69 1014.5
20260903163344 89 236 3.0 8.0 0.00 0.00 0.00 69 1014.4
20260903163255 89 278 3.0 8.0 0.00 0.00 0.00 69 1014.4
20260903163157 89 280 4.0 8.0 0.00 0.00 0.00 69 1014.4
20260903163027 89 278 4.0 8.0 0.00 0.00 0.00 68 1014.4
20260903162922 89 277 4.0 7.0 0.00 0.00 0.00 68 1014.4
20260903162833 90 233 4.0 7.0 0.00 0.00 0.00 68 1014.3
20260903162724 90 248 3.0 8.0 0.00 0.00 0.00 69 1014.5
20260903162637 90 232 3.0 8.0 0.00 0.00 0.00 70 1014.5
20260903162548 90 256 2.0 8.0 0.00 0.00 0.00 70 1014.4
20260903162501 90 276 2.0 8.0 0.00 0.00 0.00 70 1014.4
20260903162331 90 273 3.0 9.0 0.00 0.00 0.00 70 1014.4
20260903162224 90 231 3.0 9.0 0.00 0.00 0.00 69 1014.5
20260903162136 90 234 3.0 9.0 0.00 0.00 0.00 70 1014.5
20260903162032 90 246 2.0 9.0 0.00 0.00 0.00 70 1014.5
20260903161924 90 237 3.0 9.0 0.00 0.00 0.00 68 1014.5
20260903161835 90 237 3.0 9.0 0.00 0.00 0.00 68 1014.5
20260903161728 90 238 4.0 9.0 0.00 0.00 0.00 67 1014.6
20260903161651 90 249 4.0 9.0 0.00 0.00 0.00 68 1014.6
20260903161523 90 271 5.0 10.0 0.00 0.00 0.00 67 1014.6
20260903161435 90 238 5.0 10.0 0.00 0.00 0.00 67 1014.6
20260903161326 90 251 4.0 10.0 0.00 0.00 0.00 69 1014.7
20260903161243 90 227 3.0 10.0 0.00 0.00 0.00 68 1014.7
20260903161134 90 256 3.0 10.0 0.00 0.00 0.00 68 1014.7
20260903161045 90 274 3.0 10.0 0.00 0.00 0.00 68 1014.7
20260903160936 90 229 3.0 10.0 0.00 0.00 0.00 68 1014.7
20260903160829 90 248 5.0 10.0 0.00 0.00 0.00 68 1014.7
20260903160721 90 298 4.0 10.0 0.00 0.00 0.00 69 1014.7
20260903160634 90 248 4.0 10.0 0.00 0.00 0.00 68 1014.8
20260903160526 90 252 5.0 10.0 0.00 0.00 0.00 68 1014.7
20260903160437 90 263 4.0 10.0 0.00 0.00 0.00 67 1014.7
20260903160335 90 284 4.0 10.0 0.00 0.00 0.00 68 1014.8
20260903160246 90 232 4.0 10.0 0.00 0.00 0.00 68 1014.8
20260903160208 90 291 5.0 10.0 0.00 0.00 0.00 68 1014.8
20260903160059 90 257 4.0 10.0 0.00 0.00 0.00 70 1014.8
20260903155930 90 252 2.0 10.0 0.00 0.00 0.00 69 1014.8
20260903155843 90 267 2.0 10.0 0.00 0.00 0.00 70 1014.8
20260903155755 90 252 4.0 10.0 0.00 0.00 0.00 68 1014.9
20260903155647 90 250 5.0 10.0 0.00 0.00 0.00 68 1014.8
20260903155600 90 240 5.0 10.0 0.00 0.00 0.00 68 1014.9
20260903155430 90 221 5.0 12.0 0.00 0.00 0.00 68 1014.9
20260903155341 89 229 4.0 12.0 0.00 0.00 0.00 70 1014.9
20260903155257 89 256 2.0 12.0 0.00 0.00 0.00 70 1014.9